Wetterdaten: aktuell Sonntag, 20.10.2019 19:20
Datum Zeit Temp. I. Temp. 2m Temp. 5cm Temp. Wr2 LF I. Luftf.2m LF Wr2 Luftdruck Regen Wind Richtung Richtung Taupunkt Windchill Windben
20.10.2019 19:20 17,0 C 10,8 C 11,6 C 18,3 C 71 % 93 % 70 % 1009,2 hPa 0,0 l/m 0,0 km/h (0 Bft) N-NW 337 9,7 C 10,8 C 0,0 km/h (0 Bft)
20.10.2019 19:18 17,0 C 10,9 C 11,7 C 18,3 C 71 % 93 % 70 % 1009,2 hPa 0,0 l/m 0,0 km/h (0 Bft) N-NW 337 9,8 C 10,9 C 0,0 km/h (0 Bft)
20.10.2019 19:16 17,0 C 10,9 C 11,8 C 18,3 C 71 % 93 % 70 % 1009,2 hPa 0,0 l/m 0,0 km/h (0 Bft) NW 315 9,8 C 10,9 C 0,0 km/h (0 Bft)
20.10.2019 19:14 17,0 C 10,9 C 11,9 C 18,3 C 71 % 93 % 70 % 1009,2 hPa 0,0 l/m 0,0 km/h (0 Bft) NW 315 9,8 C 10,9 C 0,0 km/h (0 Bft)
20.10.2019 19:12 17,0 C 10,9 C 11,9 C 18,3 C 71 % 93 % 70 % 1009,2 hPa 0,0 l/m 0,0 km/h (0 Bft) NW 315 9,8 C 10,9 C 0,0 km/h (0 Bft)
20.10.2019 19:10 17,0 C 10,9 C 11,8 C 18,3 C 71 % 93 % 70 % 1009,2 hPa 0,0 l/m 0,0 km/h (0 Bft) NW 315 9,8 C 10,9 C 0,0 km/h (0 Bft)
20.10.2019 19:08 17,0 C 10,9 C 11,8 C 18,3 C 71 % 93 % 70 % 1009,2 hPa 0,0 l/m 0,0 km/h (0 Bft) N-NW 337 9,8 C 10,9 C 0,0 km/h (0 Bft)
20.10.2019 19:06 17,0 C 10,9 C 11,8 C 18,3 C 71 % 93 % 70 % 1009,2 hPa 0,0 l/m 0,0 km/h (0 Bft) N-NW 337 9,8 C 10,9 C 0,0 km/h (0 Bft)
20.10.2019 19:04 17,0 C 10,9 C 11,8 C 18,3 C 71 % 93 % 70 % 1009,2 hPa 0,0 l/m 0,0 km/h (0 Bft) N-NW 337 9,8 C 10,9 C 0,0 km/h (0 Bft)
20.10.2019 19:02 17,0 C 10,9 C 11,9 C 18,3 C 71 % 93 % 70 % 1009,2 hPa 0,0 l/m 0,0 km/h (0 Bft) N-NW 337 9,8 C 10,9 C 0,0 km/h (0 Bft)
20.10.2019 19:00 17,0 C 10,9 C 11,8 C 18,3 C 71 % 93 % 70 % 1009,2 hPa 0,0 l/m 0,0 km/h (0 Bft) N-NW 337 9,8 C 10,9 C 0,0 km/h (0 Bft)
20.10.2019 18:58 17,0 C 10,9 C 11,8 C 18,3 C 71 % 93 % 70 % 1009,2 hPa 0,0 l/m 0,0 km/h (0 Bft) N-NW 337 9,8 C 10,9 C 0,0 km/h (0 Bft)
20.10.2019 18:56 17,0 C 10,9 C 11,7 C 18,4 C 71 % 93 % 70 % 1009,2 hPa 0,0 l/m 0,0 km/h (0 Bft) N-NW 337 9,8 C 10,9 C 0,0 km/h (0 Bft)
20.10.2019 18:54 17,0 C 10,9 C 11,7 C 18,3 C 71 % 93 % 70 % 1009,2 hPa 0,0 l/m 0,0 km/h (0 Bft) N-NW 337 9,8 C 10,9 C 0,0 km/h (0 Bft)
20.10.2019 18:52 17,0 C 10,9 C 11,7 C 18,4 C 71 % 93 % 70 % 1009,2 hPa 0,0 l/m 0,0 km/h (0 Bft) N-NW 337 9,8 C 10,9 C 0,0 km/h (0 Bft)
20.10.2019 18:50 17,0 C 10,9 C 11,7 C 18,4 C 71 % 93 % 70 % 1009,2 hPa 0,0 l/m 0,0 km/h (0 Bft) N-NW 337 9,8 C 10,9 C 0,0 km/h (0 Bft)
20.10.2019 18:48 17,0 C 10,9 C 11,8 C 18,4 C 71 % 93 % 70 % 1009,2 hPa 0,0 l/m 0,0 km/h (0 Bft) N-NW 337 9,8 C 10,9 C 0,0 km/h (0 Bft)
20.10.2019 18:46 17,1 C 10,9 C 11,7 C 18,4 C 71 % 93 % 70 % 1009,2 hPa 0,0 l/m 0,0 km/h (0 Bft) N-NW 337 9,8 C 10,9 C 0,0 km/h (0 Bft)
20.10.2019 18:44 17,0 C 11,0 C 11,7 C 18,4 C 71 % 93 % 70 % 1009,3 hPa 0,0 l/m 0,0 km/h (0 Bft) N-NW 337 9,9 C 11,0 C 0,0 km/h (0 Bft)
20.10.2019 18:42 17,0 C 11,0 C 11,7 C 18,4 C 71 % 93 % 70 % 1009,3 hPa 0,0 l/m 0,3 km/h (0 Bft) N-NW 337 9,9 C 11,0 C 0,0 km/h (0 Bft)
20.10.2019 18:40 17,0 C 11,0 C 11,8 C 18,4 C 71 % 93 % 70 % 1009,3 hPa 0,0 l/m 0,6 km/h (0 Bft) N-NW 337 9,9 C 11,0 C 0,0 km/h (0 Bft)
20.10.2019 18:38 17,1 C 11,0 C 11,8 C 18,4 C 71 % 93 % 70 % 1009,3 hPa 0,0 l/m 0,6 km/h (0 Bft) N-NW 337 9,9 C 11,0 C 0,0 km/h (0 Bft)
20.10.2019 18:36 17,1 C 11,0 C 11,8 C 18,4 C 71 % 93 % 71 % 1009,3 hPa 0,0 l/m 0,6 km/h (0 Bft) N-NW 337 9,9 C 11,0 C 0,0 km/h (0 Bft)
20.10.2019 18:34 17,1 C 10,9 C 11,8 C 18,4 C 71 % 93 % 71 % 1009,3 hPa 0,0 l/m 0,6 km/h (0 Bft) O-SO 112 9,8 C 10,9 C 0,0 km/h (0 Bft)
20.10.2019 18:32 17,0 C 10,9 C 11,8 C 18,4 C 71 % 93 % 71 % 1009,3 hPa 0,0 l/m 0,5 km/h (0 Bft) S 180 9,8 C 10,9 C 5,3 km/h (1 Bft)
20.10.2019 18:30 17,0 C 10,9 C 11,9 C 18,4 C 71 % 93 % 71 % 1009,3 hPa 0,0 l/m 0,0 km/h (0 Bft) S-SW 202 9,8 C 10,9 C 3,1 km/h (1 Bft)
20.10.2019 18:28 17,1 C 10,9 C 11,9 C 18,4 C 71 % 93 % 71 % 1009,3 hPa 0,0 l/m 0,0 km/h (0 Bft) W-NW 292 9,8 C 10,9 C 0,0 km/h (0 Bft)
20.10.2019 18:26 17,1 C 10,8 C 11,8 C 18,4 C 71 % 93 % 71 % 1009,3 hPa 0,0 l/m 0,0 km/h (0 Bft) W-NW 292 9,7 C 10,8 C 0,0 km/h (0 Bft)
20.10.2019 18:24 17,1 C 10,9 C 11,6 C 18,4 C 71 % 93 % 71 % 1009,4 hPa 0,0 l/m 0,0 km/h (0 Bft) W-NW 292 9,8 C 10,9 C 0,0 km/h (0 Bft)
20.10.2019 18:22 17,1 C 10,9 C 11,6 C 18,4 C 71 % 93 % 71 % 1009,4 hPa 0,0 l/m 0,0 km/h (0 Bft) NW 315 9,8 C 10,9 C 0,0 km/h (0 Bft)
20.10.2019 18:20 17,0 C 10,9 C 11,6 C 18,4 C 71 % 93 % 71 % 1009,4 hPa 0,0 l/m 0,0 km/h (0 Bft) NW 315 9,8 C 10,9 C 0,0 km/h (0 Bft)
20.10.2019 18:18 17,1 C 10,9 C 11,7 C 18,4 C 71 % 93 % 71 % 1009,4 hPa 0,0 l/m 0,0 km/h (0 Bft) O-NO 67 9,8 C 10,9 C 0,0 km/h (0 Bft)
20.10.2019 18:16 17,1 C 10,9 C 11,7 C 18,4 C 71 % 93 % 71 % 1009,4 hPa 0,0 l/m 0,2 km/h (0 Bft) S-SO 157 9,8 C 10,9 C 0,0 km/h (0 Bft)
20.10.2019 18:14 17,1 C 10,9 C 11,8 C 18,4 C 71 % 93 % 71 % 1009,4 hPa 0,0 l/m 0,3 km/h (0 Bft) S-SO 157 9,8 C 10,9 C 0,0 km/h (0 Bft)
20.10.2019 18:12 17,1 C 10,9 C 11,8 C 18,4 C 71 % 93 % 71 % 1009,4 hPa 0,0 l/m 0,3 km/h (0 Bft) S-SO 157 9,8 C 10,9 C 0,0 km/h (0 Bft)
20.10.2019 18:10 17,1 C 10,9 C 11,8 C 18,4 C 71 % 93 % 71 % 1009,4 hPa 0,0 l/m 0,3 km/h (0 Bft) S-SO 157 9,8 C 10,9 C 0,0 km/h (0 Bft)
20.10.2019 18:08 17,1 C 10,9 C 11,7 C 18,4 C 71 % 93 % 71 % 1009,4 hPa 0,0 l/m 0,3 km/h (0 Bft) NW 315 9,8 C 10,9 C 0,0 km/h (0 Bft)
20.10.2019 18:06 17,1 C 10,9 C 11,6 C 18,4 C 71 % 93 % 71 % 1009,4 hPa 0,0 l/m 0,3 km/h (0 Bft) NW 315 9,8 C 10,9 C 0,0 km/h (0 Bft)
20.10.2019 18:04 17,1 C 11,0 C 11,5 C 18,4 C 71 % 93 % 71 % 1009,2 hPa 0,0 l/m 0,2 km/h (0 Bft) NW 315 9,9 C 11,0 C 2,4 km/h (1 Bft)
20.10.2019 18:02 17,1 C 11,0 C 11,6 C 18,4 C 71 % 93 % 71 % 1009,2 hPa 0,0 l/m 0,0 km/h (0 Bft) NW 315 9,9 C 11,0 C 0,0 km/h (0 Bft)
20.10.2019 18:00 17,1 C 11,1 C 11,7 C 18,4 C 71 % 93 % 71 % 1009,2 hPa 0,0 l/m 0,0 km/h (0 Bft) W-NW 292 10,0 C 11,1 C 0,0 km/h (0 Bft)
20.10.2019 17:58 17,1 C 11,1 C 11,8 C 18,4 C 71 % 93 % 71 % 1009,2 hPa 0,0 l/m 0,0 km/h (0 Bft) W-NW 292 10,0 C 11,1 C 0,0 km/h (0 Bft)
20.10.2019 17:56 17,1 C 11,3 C 12,0 C 18,4 C 71 % 93 % 71 % 1009,2 hPa 0,0 l/m 0,0 km/h (0 Bft) NW 315 10,2 C 11,3 C 0,0 km/h (0 Bft)
20.10.2019 17:54 17,1 C 11,4 C 12,0 C 18,4 C 71 % 93 % 71 % 1009,2 hPa 0,0 l/m 0,0 km/h (0 Bft) W 270 10,3 C 11,4 C 0,0 km/h (0 Bft)
20.10.2019 17:52 17,1 C 11,4 C 12,0 C 18,4 C 71 % 93 % 71 % 1009,2 hPa 0,0 l/m 0,2 km/h (0 Bft) W 270 10,3 C 11,4 C 0,0 km/h (0 Bft)
20.10.2019 17:50 17,1 C 11,4 C 12,1 C 18,4 C 71 % 93 % 71 % 1009,2 hPa 0,0 l/m 0,2 km/h (0 Bft) W 270 10,3 C 11,4 C 0,0 km/h (0 Bft)
20.10.2019 17:48 17,1 C 11,4 C 12,3 C 18,4 C 71 % 93 % 71 % 1009,2 hPa 0,0 l/m 0,2 km/h (0 Bft) W 270 10,3 C 11,4 C 0,0 km/h (0 Bft)
20.10.2019 17:46 17,1 C 11,5 C 12,3 C 18,3 C 71 % 93 % 71 % 1009,2 hPa 0,0 l/m 0,2 km/h (0 Bft) W 270 10,4 C 11,5 C 0,0 km/h (0 Bft)
20.10.2019 17:44 17,1 C 11,5 C 12,4 C 18,3 C 71 % 93 % 71 % 1009,2 hPa 0,0 l/m 0,2 km/h (0 Bft) W-NW 292 10,4 C 11,5 C 0,0 km/h (0 Bft)
20.10.2019 17:42 17,1 C 11,4 C 12,4 C 18,3 C 71 % 93 % 72 % 1009,2 hPa 0,0 l/m 0,2 km/h (0 Bft) NW 315 10,3 C 11,4 C 2,4 km/h (1 Bft)
20.10.2019 17:40 17,1 C 11,5 C 12,4 C 18,3 C 71 % 93 % 72 % 1009,2 hPa 0,0 l/m 0,0 km/h (0 Bft) SW 225 10,4 C 11,5 C 0,0 km/h (0 Bft)
20.10.2019 17:38 17,1 C 11,5 C 12,4 C 18,3 C 71 % 93 % 72 % 1009,2 hPa 0,0 l/m 0,0 km/h (0 Bft) SW 225 10,4 C 11,5 C 0,0 km/h (0 Bft)
20.10.2019 17:36 17,1 C 11,5 C 12,5 C 18,3 C 71 % 93 % 72 % 1009,2 hPa 0,0 l/m 0,0 km/h (0 Bft) SW 225 10,4 C 11,5 C 0,0 km/h (0 Bft)
20.10.2019 17:34 17,1 C 11,5 C 12,5 C 18,3 C 71 % 93 % 72 % 1009,2 hPa 0,0 l/m 0,2 km/h (0 Bft) SW 225 10,4 C 11,5 C 0,0 km/h (0 Bft)
20.10.2019 17:32 17,1 C 11,6 C 12,6 C 18,3 C 71 % 93 % 72 % 1009,2 hPa 0,0 l/m 0,2 km/h (0 Bft) SW 225 10,5 C 11,6 C 0,0 km/h (0 Bft)
20.10.2019 17:30 17,1 C 11,6 C 12,7 C 18,3 C 71 % 93 % 72 % 1009,2 hPa 0,0 l/m 0,2 km/h (0 Bft) S 180 10,5 C 11,6 C 0,0 km/h (0 Bft)
20.10.2019 17:28 17,0 C 11,6 C 12,7 C 18,3 C 71 % 93 % 72 % 1009,2 hPa 0,0 l/m 0,2 km/h (0 Bft) SW 225 10,5 C 11,6 C 0,0 km/h (0 Bft)
20.10.2019 17:26 17,0 C 11,6 C 13,0 C 18,3 C 71 % 93 % 73 % 1009,2 hPa 0,0 l/m 0,2 km/h (0 Bft) NW 315 10,5 C 11,6 C 3,1 km/h (1 Bft)
20.10.2019 17:24 17,0 C 11,7 C 12,9 C 18,3 C 71 % 93 % 73 % 1009,1 hPa 0,0 l/m 0,0 km/h (0 Bft) NW 315 10,6 C 11,7 C 2,7 km/h (1 Bft)
20.10.2019 17:22 17,0 C 11,7 C 13,1 C 18,2 C 72 % 93 % 73 % 1009,1 hPa 0,0 l/m 0,0 km/h (0 Bft) NW 315 10,6 C 11,7 C 0,0 km/h (0 Bft)
20.10.2019 17:20 17,0 C 11,7 C 13,1 C 18,2 C 72 % 93 % 73 % 1009,1 hPa 0,0 l/m 0,0 km/h (0 Bft) W 270 10,6 C 11,7 C 0,0 km/h (0 Bft)
20.10.2019 17:18 17,0 C 11,8 C 13,2 C 18,2 C 72 % 93 % 73 % 1009,1 hPa 0,0 l/m 0,0 km/h (0 Bft) W-SW 247 10,7 C 11,8 C 0,0 km/h (0 Bft)
20.10.2019 17:16 17,0 C 11,8 C 13,3 C 18,1 C 72 % 93 % 73 % 1009,1 hPa 0,0 l/m 0,0 km/h (0 Bft) W-SW 247 10,7 C 11,8 C 0,0 km/h (0 Bft)
20.10.2019 17:14 17,0 C 11,8 C 13,4 C 18,1 C 72 % 93 % 74 % 1009,1 hPa 0,0 l/m 0,0 km/h (0 Bft) W-SW 247 10,7 C 11,8 C 0,0 km/h (0 Bft)
20.10.2019 17:12 17,0 C 11,8 C 13,3 C 18,1 C 72 % 93 % 74 % 1009,1 hPa 0,0 l/m 0,0 km/h (0 Bft) NW 315 10,7 C 11,8 C 0,0 km/h (0 Bft)
20.10.2019 17:10 17,0 C 11,8 C 13,4 C 18,1 C 72 % 93 % 74 % 1009,1 hPa 0,0 l/m 0,0 km/h (0 Bft) NW 315 10,7 C 11,8 C 0,0 km/h (0 Bft)
20.10.2019 17:08 17,0 C 11,8 C 13,3 C 18,0 C 72 % 93 % 74 % 1009,1 hPa 0,0 l/m 0,0 km/h (0 Bft) NW 315 10,7 C 11,8 C 0,0 km/h (0 Bft)
20.10.2019 17:06 17,0 C 11,8 C 13,3 C 17,9 C 72 % 93 % 74 % 1009,1 hPa 0,0 l/m 0,0 km/h (0 Bft) NW 315 10,7 C 11,8 C 0,0 km/h (0 Bft)
20.10.2019 17:04 17,0 C 11,8 C 13,3 C 17,9 C 72 % 93 % 74 % 1008,9 hPa 0,0 l/m 0,0 km/h (0 Bft) W-NW 292 10,7 C 11,8 C 0,0 km/h (0 Bft)
20.10.2019 17:02 17,0 C 11,8 C 13,4 C 17,9 C 72 % 93 % 75 % 1008,9 hPa 0,0 l/m 0,0 km/h (0 Bft) W-SW 247 10,7 C 11,8 C 0,0 km/h (0 Bft)
20.10.2019 17:00 17,0 C 11,8 C 13,4 C 17,9 C 72 % 93 % 75 % 1008,9 hPa 0,0 l/m 0,0 km/h (0 Bft) N-NW 337 10,7 C 11,8 C 0,0 km/h (0 Bft)
20.10.2019 16:58 17,0 C 11,8 C 13,4 C 17,8 C 72 % 93 % 75 % 1008,9 hPa 0,0 l/m 0,0 km/h (0 Bft) N-NW 337 10,7 C 11,8 C 0,0 km/h (0 Bft)
20.10.2019 16:56 17,0 C 11,8 C 13,4 C 17,8 C 72 % 93 % 76 % 1008,9 hPa 0,0 l/m 0,0 km/h (0 Bft) W-SW 247 10,7 C 11,8 C 0,0 km/h (0 Bft)
20.10.2019 16:54 17,0 C 11,8 C 13,4 C 17,7 C 72 % 93 % 76 % 1008,9 hPa 0,0 l/m 0,0 km/h (0 Bft) W-SW 247 10,7 C 11,8 C 0,0 km/h (0 Bft)
20.10.2019 16:52 17,0 C 11,8 C 13,5 C 17,6 C 72 % 93 % 76 % 1008,9 hPa 0,0 l/m 0,0 km/h (0 Bft) SW 225 10,7 C 11,8 C 0,0 km/h (0 Bft)
20.10.2019 16:50 17,0 C 11,9 C 13,6 C 17,6 C 72 % 93 % 76 % 1008,9 hPa 0,0 l/m 0,2 km/h (0 Bft) W-SW 247 10,8 C 11,9 C 0,0 km/h (0 Bft)
20.10.2019 16:48 17,0 C 11,9 C 13,5 C 17,5 C 72 % 93 % 76 % 1008,9 hPa 0,0 l/m 0,2 km/h (0 Bft) NW 315 10,8 C 11,9 C 0,0 km/h (0 Bft)
20.10.2019 16:46 17,0 C 11,8 C 13,5 C 17,5 C 72 % 93 % 76 % 1008,9 hPa 0,0 l/m 0,6 km/h (0 Bft) W-SW 247 10,7 C 11,8 C 0,0 km/h (0 Bft)
20.10.2019 16:44 17,0 C 11,8 C 13,6 C 17,5 C 72 % 93 % 76 % 1008,9 hPa 0,0 l/m 0,6 km/h (0 Bft) W-SW 247 10,7 C 11,8 C 0,0 km/h (0 Bft)
20.10.2019 16:42 17,0 C 11,8 C 13,6 C 17,5 C 72 % 93 % 76 % 1008,9 hPa 0,0 l/m 0,6 km/h (0 Bft) SW 225 10,7 C 11,8 C 0,0 km/h (0 Bft)
20.10.2019 16:40 17,0 C 11,8 C 13,6 C 12,3 C 72 % 93 % 72 % 1008,9 hPa 0,0 l/m 0,5 km/h (0 Bft) S 180 10,7 C 11,8 C 3,6 km/h (1 Bft)
20.10.2019 16:38 17,0 C 11,8 C 13,6 C 12,3 C 72 % 93 % 72 % 1008,9 hPa 0,0 l/m 0,3 km/h (0 Bft) W-SW 247 10,7 C 11,8 C 0,0 km/h (0 Bft)
20.10.2019 16:36 17,0 C 11,8 C 13,8 C 12,3 C 72 % 93 % 72 % 1008,9 hPa 0,0 l/m 0,3 km/h (0 Bft) NW 315 10,7 C 11,8 C 3,9 km/h (1 Bft)
20.10.2019 16:34 16,9 C 11,8 C 13,7 C 12,3 C 72 % 93 % 72 % 1008,9 hPa 0,0 l/m 0,2 km/h (0 Bft) NW 315 10,7 C 11,8 C 0,0 km/h (0 Bft)
20.10.2019 16:32 16,9 C 11,7 C 13,7 C 12,3 C 72 % 93 % 72 % 1008,9 hPa 0,0 l/m 0,3 km/h (0 Bft) NW 315 10,6 C 11,7 C 0,0 km/h (0 Bft)
20.10.2019 16:30 16,9 C 11,7 C 13,6 C 12,3 C 72 % 93 % 72 % 1008,9 hPa 0,0 l/m 0,5 km/h (0 Bft) W 270 10,6 C 11,7 C 0,0 km/h (0 Bft)
20.10.2019 16:28 16,9 C 11,6 C 13,5 C 12,3 C 72 % 93 % 72 % 1008,9 hPa 0,0 l/m 0,5 km/h (0 Bft) NW 315 10,5 C 11,6 C 0,0 km/h (0 Bft)
20.10.2019 16:26 16,9 C 11,6 C 13,5 C 12,3 C 72 % 93 % 72 % 1008,9 hPa 0,0 l/m 0,5 km/h (0 Bft) W 270 10,5 C 11,6 C 0,0 km/h (0 Bft)
20.10.2019 16:24 16,9 C 11,6 C 13,5 C 12,3 C 72 % 93 % 72 % 1008,6 hPa 0,0 l/m 0,5 km/h (0 Bft) NW 315 10,5 C 11,6 C 4,6 km/h (1 Bft)
20.10.2019 16:22 16,9 C 11,6 C 13,5 C 12,3 C 72 % 93 % 72 % 1008,6 hPa 0,0 l/m 0,2 km/h (0 Bft) W-NW 292 10,5 C 11,6 C 0,0 km/h (0 Bft)
20.10.2019 16:20 16,9 C 11,6 C 13,5 C 12,3 C 72 % 93 % 72 % 1008,6 hPa 0,0 l/m 0,2 km/h (0 Bft) N-NW 337 10,5 C 11,6 C 2,7 km/h (1 Bft)
20.10.2019 16:18 16,9 C 11,6 C 13,5 C 12,3 C 72 % 93 % 72 % 1008,6 hPa 0,0 l/m 0,0 km/h (0 Bft) W-NW 292 10,5 C 11,6 C 0,0 km/h (0 Bft)
20.10.2019 16:16 16,9 C 11,6 C 13,4 C 12,3 C 72 % 92 % 72 % 1008,6 hPa 0,0 l/m 0,0 km/h (0 Bft) N-NW 337 10,3 C 11,6 C 0,0 km/h (0 Bft)
20.10.2019 16:14 16,9 C 11,5 C 13,4 C 12,3 C 72 % 92 % 72 % 1008,6 hPa 0,0 l/m 0,0 km/h (0 Bft) N-NW 337 10,2 C 11,5 C 0,0 km/h (0 Bft)
20.10.2019 16:12 16,8 C 11,5 C 13,5 C 12,3 C 72 % 92 % 72 % 1008,6 hPa 0,0 l/m 0,0 km/h (0 Bft) NW 315 10,2 C 11,5 C 0,0 km/h (0 Bft)
20.10.2019 16:10 16,8 C 11,6 C 13,4 C 12,3 C 72 % 92 % 72 % 1008,6 hPa 0,0 l/m 0,0 km/h (0 Bft) N-NW 337 10,3 C 11,6 C 0,0 km/h (0 Bft)
20.10.2019 16:08 16,8 C 11,5 C 13,5 C 12,3 C 72 % 92 % 72 % 1008,6 hPa 0,0 l/m 0,0 km/h (0 Bft) W-SW 247 10,2 C 11,5 C 0,0 km/h (0 Bft)
20.10.2019 16:06 16,8 C 11,5 C 13,5 C 12,3 C 72 % 92 % 72 % 1008,6 hPa 0,0 l/m 0,0 km/h (0 Bft) W-SW 247 10,2 C 11,5 C 0,0 km/h (0 Bft)
20.10.2019 16:04 16,8 C 11,6 C 13,4 C 12,3 C 72 % 92 % 72 % 1008,8 hPa 0,0 l/m 0,2 km/h (0 Bft) W 270 10,3 C 11,6 C 0,0 km/h (0 Bft)
20.10.2019 16:02 16,8 C 11,6 C 13,5 C 12,3 C 72 % 92 % 72 % 1008,8 hPa 0,0 l/m 0,2 km/h (0 Bft) W 270 10,3 C 11,6 C 0,0 km/h (0 Bft)
20.10.2019 16:00 16,8 C 11,6 C 13,5 C 12,3 C 72 % 92 % 72 % 1008,8 hPa 0,0 l/m 0,5 km/h (0 Bft) W-NW 292 10,3 C 11,6 C 0,0 km/h (0 Bft)
20.10.2019 15:58 16,8 C 11,6 C 13,5 C 12,3 C 72 % 92 % 72 % 1008,8 hPa 0,0 l/m 0,5 km/h (0 Bft) NW 315 10,3 C 11,6 C 0,0 km/h (0 Bft)
20.10.2019 15:56 16,8 C 11,6 C 13,6 C 12,3 C 72 % 92 % 72 % 1008,8 hPa 0,0 l/m 0,5 km/h (0 Bft) W 270 10,3 C 11,6 C 0,0 km/h (0 Bft)
20.10.2019 15:54 16,8 C 11,6 C 13,6 C 12,3 C 71 % 92 % 72 % 1008,8 hPa 0,0 l/m 0,5 km/h (0 Bft) W 270 10,3 C 11,6 C 2,4 km/h (1 Bft)
20.10.2019 15:52 16,8 C 11,6 C 13,7 C 12,3 C 72 % 92 % 72 % 1008,8 hPa 0,0 l/m 0,5 km/h (0 Bft) W-NW 292 10,3 C 11,6 C 3,1 km/h (1 Bft)
20.10.2019 15:50 16,8 C 11,6 C 13,7 C 12,3 C 71 % 92 % 72 % 1008,8 hPa 0,0 l/m 0,3 km/h (0 Bft) W-NW 292 10,3 C 11,6 C 4,1 km/h (1 Bft)
20.10.2019 15:48 16,8 C 11,6 C 13,8 C 12,3 C 71 % 92 % 72 % 1008,8 hPa 0,0 l/m 0,2 km/h (0 Bft) W-NW 292 10,3 C 11,6 C 0,0 km/h (0 Bft)
20.10.2019 15:46 16,8 C 11,7 C 13,8 C 12,3 C 71 % 92 % 72 % 1008,8 hPa 0,0 l/m 0,2 km/h (0 Bft) NW 315 10,4 C 11,7 C 0,0 km/h (0 Bft)
20.10.2019 15:44 16,8 C 11,7 C 13,8 C 12,3 C 71 % 92 % 72 % 1008,8 hPa 0,0 l/m 0,3 km/h (0 Bft) NW 315 10,4 C 11,7 C 0,0 km/h (0 Bft)
20.10.2019 15:42 16,8 C 11,7 C 13,8 C 12,3 C 71 % 92 % 72 % 1008,8 hPa 0,0 l/m 0,2 km/h (0 Bft) N-NW 337 10,4 C 11,7 C 0,0 km/h (0 Bft)
20.10.2019 15:40 16,8 C 11,7 C 13,9 C 12,3 C 71 % 92 % 72 % 1008,8 hPa 0,0 l/m 0,2 km/h (0 Bft) W 270 10,4 C 11,7 C 0,0 km/h (0 Bft)
20.10.2019 15:38 16,8 C 11,7 C 13,9 C 12,3 C 71 % 92 % 72 % 1008,8 hPa 0,0 l/m 0,2 km/h (0 Bft) NW 315 10,4 C 11,7 C 0,0 km/h (0 Bft)
20.10.2019 15:36 16,8 C 11,7 C 14,1 C 12,3 C 71 % 92 % 72 % 1008,8 hPa 0,0 l/m 0,2 km/h (0 Bft) W-NW 292 10,4 C 11,7 C 0,0 km/h (0 Bft)
20.10.2019 15:34 16,7 C 11,8 C 14,2 C 12,3 C 71 % 92 % 72 % 1008,8 hPa 0,0 l/m 0,0 km/h (0 Bft) NW 315 10,5 C 11,8 C 0,0 km/h (0 Bft)
20.10.2019 15:32 16,7 C 11,8 C 14,3 C 12,3 C 71 % 92 % 72 % 1008,8 hPa 0,0 l/m 0,0 km/h (0 Bft) W-NW 292 10,5 C 11,8 C 0,0 km/h (0 Bft)
20.10.2019 15:30 16,7 C 11,8 C 14,3 C 12,3 C 71 % 92 % 72 % 1008,8 hPa 0,0 l/m 0,3 km/h (0 Bft) W 270 10,5 C 11,8 C 0,0 km/h (0 Bft)
20.10.2019 15:28 16,7 C 11,8 C 14,4 C 12,3 C 71 % 91 % 72 % 1008,8 hPa 0,0 l/m 0,3 km/h (0 Bft) W-NW 292 10,4 C 11,8 C 0,0 km/h (0 Bft)
20.10.2019 15:26 16,7 C 11,8 C 14,3 C 12,3 C 71 % 91 % 72 % 1008,8 hPa 0,0 l/m 0,5 km/h (0 Bft) NW 315 10,4 C 11,8 C 0,0 km/h (0 Bft)
20.10.2019 15:24 16,7 C 11,8 C 14,4 C 12,3 C 71 % 91 % 72 % 1008,8 hPa 0,0 l/m 0,5 km/h (0 Bft) NW 315 10,4 C 11,8 C 0,0 km/h (0 Bft)
20.10.2019 15:22 16,7 C 11,9 C 14,5 C 12,3 C 71 % 91 % 72 % 1008,8 hPa 0,0 l/m 0,5 km/h (0 Bft) W 270 10,5 C 11,9 C 0,0 km/h (0 Bft)
20.10.2019 15:20 16,7 C 11,9 C 14,6 C 12,3 C 71 % 91 % 72 % 1008,8 hPa 0,0 l/m 0,2 km/h (0 Bft) NW 315 10,5 C 11,9 C 2,4 km/h (1 Bft)
20.10.2019 15:18 16,7 C 11,9 C 14,6 C 12,3 C 71 % 91 % 72 % 1008,8 hPa 0,0 l/m 0,2 km/h (0 Bft) N-NW 337 10,5 C 11,9 C 0,0 km/h (0 Bft)
20.10.2019 15:16 16,7 C 11,9 C 14,6 C 12,3 C 71 % 91 % 72 % 1008,8 hPa 0,0 l/m 0,2 km/h (0 Bft) NW 315 10,5 C 11,9 C 3,9 km/h (1 Bft)
20.10.2019 15:14 16,6 C 11,9 C 14,6 C 12,3 C 71 % 91 % 72 % 1008,8 hPa 0,0 l/m 0,0 km/h (0 Bft) NW 315 10,5 C 11,9 C 0,0 km/h (0 Bft)
20.10.2019 15:12 16,6 C 11,9 C 14,6 C 12,3 C 71 % 91 % 72 % 1008,8 hPa 0,0 l/m 0,2 km/h (0 Bft) O-SO 112 10,5 C 11,9 C 0,0 km/h (0 Bft)
20.10.2019 15:10 16,6 C 12,0 C 14,7 C 12,3 C 71 % 90 % 72 % 1008,8 hPa 0,0 l/m 0,2 km/h (0 Bft) SW 225 10,4 C 12,0 C 0,0 km/h (0 Bft)
20.10.2019 15:08 16,6 C 12,0 C 14,8 C 12,3 C 71 % 90 % 72 % 1008,8 hPa 0,0 l/m 0,2 km/h (0 Bft) W-NW 292 10,4 C 12,0 C 0,0 km/h (0 Bft)
20.10.2019 15:06 16,6 C 12,0 C 14,7 C 12,3 C 71 % 90 % 72 % 1008,8 hPa 0,0 l/m 0,3 km/h (0 Bft) W-SW 247 10,4 C 12,0 C 0,0 km/h (0 Bft)
20.10.2019 15:04 16,6 C 12,2 C 14,8 C 12,3 C 71 % 90 % 72 % 1008,5 hPa 0,0 l/m 0,3 km/h (0 Bft) W 270 10,6 C 12,2 C 0,0 km/h (0 Bft)
20.10.2019 15:02 16,6 C 12,3 C 15,2 C 12,3 C 71 % 90 % 72 % 1008,5 hPa 0,0 l/m 0,2 km/h (0 Bft) NW 315 10,7 C 12,3 C 0,0 km/h (0 Bft)
20.10.2019 15:00 16,6 C 12,4 C 15,2 C 12,3 C 71 % 90 % 72 % 1008,5 hPa 0,0 l/m 0,2 km/h (0 Bft) W 270 10,8 C 12,4 C 0,0 km/h (0 Bft)
20.10.2019 14:58 16,6 C 12,4 C 15,3 C 12,3 C 71 % 90 % 72 % 1008,5 hPa 0,0 l/m 0,2 km/h (0 Bft) NW 315 10,8 C 12,4 C 0,0 km/h (0 Bft)
20.10.2019 14:56 16,6 C 12,4 C 15,2 C 12,3 C 71 % 90 % 72 % 1008,5 hPa 0,0 l/m 0,2 km/h (0 Bft) W 270 10,8 C 12,4 C 0,0 km/h (0 Bft)
20.10.2019 14:54 16,5 C 12,5 C 15,5 C 12,3 C 71 % 90 % 72 % 1008,5 hPa 0,0 l/m 0,2 km/h (0 Bft) W 270 10,9 C 12,5 C 0,0 km/h (0 Bft)
20.10.2019 14:52 16,5 C 12,6 C 15,7 C 12,3 C 71 % 90 % 72 % 1008,5 hPa 0,0 l/m 0,2 km/h (0 Bft) W-NW 292 11,0 C 12,6 C 0,0 km/h (0 Bft)
20.10.2019 14:50 16,5 C 12,6 C 15,7 C 12,3 C 71 % 90 % 72 % 1008,5 hPa 0,0 l/m 0,0 km/h (0 Bft) NW 315 11,0 C 12,6 C 0,0 km/h (0 Bft)
20.10.2019 14:48 16,5 C 12,6 C 16,0 C 12,3 C 71 % 89 % 72 % 1008,5 hPa 0,0 l/m 0,0 km/h (0 Bft) W 270 10,8 C 12,6 C 0,0 km/h (0 Bft)
20.10.2019 14:46 16,5 C 12,8 C 16,1 C 12,3 C 71 % 90 % 72 % 1008,5 hPa 0,0 l/m 0,0 km/h (0 Bft) NW 315 11,2 C 12,8 C 0,0 km/h (0 Bft)
20.10.2019 14:44 16,5 C 12,9 C 16,3 C 12,3 C 71 % 90 % 72 % 1008,3 hPa 0,0 l/m 0,2 km/h (0 Bft) NW 315 11,3 C 12,9 C 0,0 km/h (0 Bft)
20.10.2019 14:42 16,5 C 12,8 C 16,3 C 12,3 C 71 % 89 % 72 % 1008,3 hPa 0,0 l/m 0,2 km/h (0 Bft) NW 315 11,0 C 12,8 C 0,0 km/h (0 Bft)
20.10.2019 14:40 16,5 C 12,8 C 16,3 C 12,3 C 71 % 89 % 72 % 1008,3 hPa 0,0 l/m 0,2 km/h (0 Bft) NW 315 11,0 C 12,8 C 0,0 km/h (0 Bft)
20.10.2019 14:38 16,5 C 12,8 C 16,1 C 12,3 C 71 % 89 % 72 % 1008,3 hPa 0,0 l/m 0,2 km/h (0 Bft) NW 315 11,0 C 12,8 C 0,0 km/h (0 Bft)
20.10.2019 14:36 16,5 C 12,8 C 16,4 C 12,3 C 71 % 89 % 72 % 1008,3 hPa 0,0 l/m 0,3 km/h (0 Bft) NW 315 11,0 C 12,8 C 0,0 km/h (0 Bft)
20.10.2019 14:34 16,5 C 13,0 C 16,6 C 12,3 C 71 % 88 % 72 % 1008,3 hPa 0,0 l/m 0,3 km/h (0 Bft) NW 315 11,1 C 13,0 C 3,1 km/h (1 Bft)
20.10.2019 14:32 16,4 C 13,0 C 16,8 C 12,3 C 71 % 88 % 72 % 1008,3 hPa 0,0 l/m 0,2 km/h (0 Bft) W 270 11,1 C 13,0 C 0,0 km/h (0 Bft)
20.10.2019 14:30 16,5 C 13,0 C 17,2 C 12,3 C 71 % 88 % 72 % 1008,3 hPa 0,0 l/m 0,3 km/h (0 Bft) W 270 11,1 C 13,0 C 0,0 km/h (0 Bft)
20.10.2019 14:28 16,4 C 12,9 C 17,3 C 12,3 C 71 % 88 % 72 % 1008,3 hPa 0,0 l/m 0,5 km/h (0 Bft) W-NW 292 11,0 C 12,9 C 0,0 km/h (0 Bft)
20.10.2019 14:26 16,4 C 12,8 C 17,3 C 12,3 C 71 % 88 % 72 % 1008,3 hPa 0,0 l/m 0,5 km/h (0 Bft) W 270 10,9 C 12,8 C 2,9 km/h (1 Bft)
20.10.2019 14:24 16,4 C 12,9 C 17,4 C 12,3 C 71 % 87 % 72 % 1008,2 hPa 0,0 l/m 0,5 km/h (0 Bft) NW 315 10,8 C 12,9 C 3,1 km/h (1 Bft)
20.10.2019 14:22 16,4 C 12,9 C 17,6 C 12,3 C 71 % 87 % 72 % 1008,2 hPa 0,0 l/m 0,3 km/h (0 Bft) NW 315 10,8 C 12,9 C 0,0 km/h (0 Bft)
20.10.2019 14:20 16,4 C 13,0 C 17,8 C 12,3 C 71 % 87 % 72 % 1008,2 hPa 0,0 l/m 0,3 km/h (0 Bft) NW 315 10,9 C 13,0 C 2,9 km/h (1 Bft)
20.10.2019 14:18 16,4 C 13,1 C 17,9 C 12,3 C 71 % 87 % 72 % 1008,2 hPa 0,0 l/m 0,2 km/h (0 Bft) W 270 11,0 C 13,1 C 0,0 km/h (0 Bft)
20.10.2019 14:16 16,4 C 13,1 C 18,3 C 12,3 C 71 % 87 % 72 % 1008,2 hPa 0,0 l/m 0,2 km/h (0 Bft) NW 315 11,0 C 13,1 C 4,6 km/h (1 Bft)
20.10.2019 14:14 16,4 C 13,1 C 18,5 C 12,3 C 71 % 87 % 72 % 1008,2 hPa 0,0 l/m 0,2 km/h (0 Bft) NW 315 11,0 C 13,1 C 0,0 km/h (0 Bft)
20.10.2019 14:12 16,4 C 13,1 C 18,8 C 12,3 C 71 % 87 % 72 % 1008,2 hPa 0,0 l/m 0,2 km/h (0 Bft) W 270 11,0 C 13,1 C 0,0 km/h (0 Bft)
20.10.2019 14:10 16,2 C 13,0 C 19,1 C 12,3 C 71 % 86 % 72 % 1008,2 hPa 0,0 l/m 0,2 km/h (0 Bft) NW 315 10,7 C 13,0 C 0,0 km/h (0 Bft)
20.10.2019 14:08 16,4 C 13,0 C 19,2 C 12,3 C 71 % 86 % 72 % 1008,2 hPa 0,0 l/m 0,2 km/h (0 Bft) W-NW 292 10,7 C 13,0 C 0,0 km/h (0 Bft)
20.10.2019 14:06 16,4 C 13,1 C 19,7 C 12,3 C 71 % 86 % 72 % 1008,2 hPa 0,0 l/m 0,0 km/h (0 Bft) W 270 10,8 C 13,1 C 0,0 km/h (0 Bft)
20.10.2019 14:04 16,2 C 13,3 C 20,2 C 12,3 C 71 % 85 % 72 % 1008,4 hPa 0,0 l/m 0,0 km/h (0 Bft) W-NW 292 10,8 C 13,3 C 0,0 km/h (0 Bft)
20.10.2019 14:02 16,3 C 13,4 C 20,6 C 12,3 C 71 % 85 % 72 % 1008,4 hPa 0,0 l/m 0,0 km/h (0 Bft) NW 315 10,9 C 13,4 C 0,0 km/h (0 Bft)
20.10.2019 14:00 16,3 C 13,4 C 20,7 C 12,3 C 71 % 85 % 72 % 1008,4 hPa 0,0 l/m 0,0 km/h (0 Bft) NW 315 10,9 C 13,4 C 0,0 km/h (0 Bft)
20.10.2019 13:58 16,3 C 13,5 C 20,7 C 12,3 C 71 % 85 % 72 % 1008,4 hPa 0,0 l/m 0,0 km/h (0 Bft) W-NW 292 11,0 C 13,5 C 0,0 km/h (0 Bft)
20.10.2019 13:56 16,3 C 13,5 C 20,8 C 12,3 C 71 % 85 % 72 % 1008,4 hPa 0,0 l/m 0,0 km/h (0 Bft) W-NW 292 11,0 C 13,5 C 0,0 km/h (0 Bft)
20.10.2019 13:54 16,3 C 13,5 C 20,8 C 12,3 C 71 % 84 % 72 % 1008,4 hPa 0,0 l/m 0,0 km/h (0 Bft) NW 315 10,8 C 13,5 C 0,0 km/h (0 Bft)
20.10.2019 13:52 16,2 C 13,7 C 21,4 C 12,3 C 71 % 84 % 72 % 1008,4 hPa 0,0 l/m 0,0 km/h (0 Bft) W-NW 292 11,0 C 13,7 C 0,0 km/h (0 Bft)
20.10.2019 13:50 16,2 C 13,7 C 21,7 C 12,3 C 71 % 84 % 72 % 1008,4 hPa 0,0 l/m 0,0 km/h (0 Bft) NW 315 11,0 C 13,7 C 0,0 km/h (0 Bft)
20.10.2019 13:48 16,2 C 13,7 C 21,5 C 12,3 C 71 % 84 % 72 % 1008,4 hPa 0,0 l/m 0,0 km/h (0 Bft) W 270 11,0 C 13,7 C 0,0 km/h (0 Bft)
20.10.2019 13:46 16,2 C 13,8 C 21,5 C 12,3 C 71 % 85 % 72 % 1008,4 hPa 0,0 l/m 0,0 km/h (0 Bft) W 270 11,3 C 13,8 C 0,0 km/h (0 Bft)
20.10.2019 13:44 16,2 C 13,7 C 21,1 C 12,3 C 71 % 85 % 72 % 1008,5 hPa 0,0 l/m 0,0 km/h (0 Bft) NW 315 11,2 C 13,7 C 0,0 km/h (0 Bft)
20.10.2019 13:42 16,2 C 13,8 C 21,2 C 12,3 C 71 % 84 % 72 % 1008,5 hPa 0,0 l/m 0,0 km/h (0 Bft) W 270 11,1 C 13,8 C 0,0 km/h (0 Bft)
20.10.2019 13:40 16,2 C 13,9 C 21,4 C 12,3 C 71 % 85 % 72 % 1008,5 hPa 0,0 l/m 0,0 km/h (0 Bft) W-NW 292 11,4 C 13,9 C 0,0 km/h (0 Bft)
20.10.2019 13:38 16,2 C 13,6 C 21,4 C 12,3 C 71 % 85 % 72 % 1008,5 hPa 0,0 l/m 0,0 km/h (0 Bft) W 270 11,1 C 13,6 C 0,0 km/h (0 Bft)
20.10.2019 13:36 16,2 C 13,4 C 21,2 C 12,3 C 71 % 84 % 72 % 1008,5 hPa 0,0 l/m 0,0 km/h (0 Bft) W-NW 292 10,8 C 13,4 C 0,0 km/h (0 Bft)
20.10.2019 13:34 16,2 C 13,4 C 21,3 C 12,3 C 71 % 84 % 72 % 1008,5 hPa 0,0 l/m 0,0 km/h (0 Bft) NW 315 10,8 C 13,4 C 0,0 km/h (0 Bft)
20.10.2019 13:32 16,2 C 13,6 C 21,2 C 12,3 C 71 % 84 % 72 % 1008,5 hPa 0,0 l/m 0,0 km/h (0 Bft) N-NW 337 10,9 C 13,6 C 0,0 km/h (0 Bft)
20.10.2019 13:30 16,2 C 13,7 C 21,5 C 12,3 C 71 % 83 % 72 % 1008,5 hPa 0,0 l/m 0,0 km/h (0 Bft) W 270 10,9 C 13,7 C 0,0 km/h (0 Bft)
20.10.2019 13:28 16,2 C 13,7 C 21,7 C 12,3 C 71 % 83 % 72 % 1008,5 hPa 0,0 l/m 0,0 km/h (0 Bft) NW 315 10,9 C 13,7 C 0,0 km/h (0 Bft)
20.10.2019 13:26 16,2 C 13,9 C 22,1 C 12,3 C 71 % 83 % 72 % 1008,5 hPa 0,0 l/m 0,0 km/h (0 Bft) W-NW 292 11,1 C 13,9 C 0,0 km/h (0 Bft)
20.10.2019 13:24 16,1 C 13,9 C 22,0 C 12,3 C 70 % 82 % 72 % 1008,4 hPa 0,0 l/m 0,0 km/h (0 Bft) NW 315 10,9 C 13,9 C 0,0 km/h (0 Bft)
20.10.2019 13:22 16,1 C 13,7 C 21,5 C 12,3 C 70 % 81 % 72 % 1008,4 hPa 0,0 l/m 0,0 km/h (0 Bft) W-SW 247 10,5 C 13,7 C 0,0 km/h (0 Bft)
20.10.2019 13:20 16,1 C 13,9 C 21,9 C 12,3 C 70 % 82 % 72 % 1008,4 hPa 0,0 l/m 0,0 km/h (0 Bft) NW 315 10,9 C 13,9 C 0,0 km/h (0 Bft)
20.10.2019 13:18 16,1 C 14,1 C 22,2 C 12,3 C 70 % 82 % 72 % 1008,4 hPa 0,0 l/m 0,0 km/h (0 Bft) N-NW 337 11,1 C 14,1 C 0,0 km/h (0 Bft)
20.10.2019 13:16 16,1 C 14,0 C 21,8 C 12,3 C 70 % 81 % 72 % 1008,4 hPa 0,0 l/m 0,0 km/h (0 Bft) N-NW 337 10,8 C 14,0 C 0,0 km/h (0 Bft)
20.10.2019 13:14 16,1 C 14,2 C 22,4 C 12,3 C 70 % 82 % 72 % 1008,4 hPa 0,0 l/m 0,0 km/h (0 Bft) O 90 11,2 C 14,2 C 0,0 km/h (0 Bft)
20.10.2019 13:12 16,1 C 14,2 C 22,7 C 12,3 C 70 % 83 % 72 % 1008,4 hPa 0,0 l/m 0,0 km/h (0 Bft) O-NO 67 11,4 C 14,2 C 0,0 km/h (0 Bft)
20.10.2019 13:10 16,1 C 14,0 C 22,5 C 12,3 C 70 % 84 % 72 % 1008,4 hPa 0,0 l/m 0,2 km/h (0 Bft) O-SO 112 11,3 C 14,0 C 0,0 km/h (0 Bft)
20.10.2019 13:08 15,9 C 13,9 C 22,2 C 12,3 C 70 % 84 % 72 % 1008,4 hPa 0,0 l/m 0,3 km/h (0 Bft) W-NW 292 11,2 C 13,9 C 0,0 km/h (0 Bft)
20.10.2019 13:06 15,9 C 13,4 C 21,6 C 12,3 C 70 % 83 % 72 % 1008,4 hPa 0,0 l/m 0,3 km/h (0 Bft) N-NW 337 10,6 C 13,4 C 0,0 km/h (0 Bft)
20.10.2019 13:04 15,9 C 13,5 C 21,5 C 12,3 C 70 % 82 % 72 % 1008,4 hPa 0,0 l/m 0,3 km/h (0 Bft) NW 315 10,5 C 13,5 C 3,6 km/h (1 Bft)
20.10.2019 13:02 15,9 C 13,9 C 21,8 C 12,3 C 70 % 83 % 72 % 1008,4 hPa 0,0 l/m 0,3 km/h (0 Bft) SW 225 11,1 C 13,9 C 0,0 km/h (0 Bft)
20.10.2019 13:00 16,0 C 14,0 C 21,5 C 12,3 C 70 % 84 % 72 % 1008,4 hPa 0,0 l/m 0,5 km/h (0 Bft) NO 45 11,3 C 14,0 C 0,0 km/h (0 Bft)
20.10.2019 12:58 16,0 C 13,7 C 21,2 C 12,3 C 70 % 85 % 72 % 1008,4 hPa 0,0 l/m 0,6 km/h (0 Bft) O 90 11,2 C 13,7 C 4,6 km/h (1 Bft)
20.10.2019 12:56 16,0 C 13,4 C 20,3 C 12,3 C 70 % 86 % 72 % 1008,4 hPa 0,0 l/m 0,6 km/h (0 Bft) N-NW 337 11,1 C 13,4 C 0,0 km/h (0 Bft)
20.10.2019 12:54 16,0 C 13,0 C 19,8 C 12,3 C 70 % 86 % 72 % 1008,4 hPa 0,0 l/m 0,6 km/h (0 Bft) NW 315 10,7 C 13,0 C 2,7 km/h (1 Bft)
20.10.2019 12:52 15,8 C 12,5 C 19,9 C 12,3 C 70 % 86 % 72 % 1008,4 hPa 0,0 l/m 0,5 km/h (0 Bft) O 90 10,2 C 12,5 C 0,0 km/h (0 Bft)
20.10.2019 12:50 15,8 C 12,3 C 20,1 C 12,3 C 70 % 85 % 72 % 1008,4 hPa 0,0 l/m 0,5 km/h (0 Bft) NO 45 9,9 C 12,3 C 3,1 km/h (1 Bft)
20.10.2019 12:48 15,9 C 12,3 C 19,2 C 12,3 C 70 % 86 % 72 % 1008,4 hPa 0,0 l/m 0,6 km/h (0 Bft) O-SO 112 10,0 C 12,3 C 4,3 km/h (1 Bft)
20.10.2019 12:46 15,9 C 12,3 C 18,9 C 12,3 C 70 % 86 % 72 % 1008,4 hPa 0,0 l/m 0,5 km/h (0 Bft) O-NO 67 10,0 C 12,3 C 0,0 km/h (0 Bft)
20.10.2019 12:44 15,9 C 12,3 C 19,2 C 12,3 C 70 % 86 % 72 % 1008,5 hPa 0,0 l/m 0,5 km/h (0 Bft) O-NO 67 10,0 C 12,3 C 0,0 km/h (0 Bft)
20.10.2019 12:42 15,8 C 12,2 C 19,0 C 12,3 C 70 % 86 % 72 % 1008,5 hPa 0,0 l/m 0,8 km/h (0 Bft) SW 225 9,9 C 12,2 C 0,0 km/h (0 Bft)
20.10.2019 12:40 15,8 C 12,4 C 19,1 C 12,3 C 70 % 86 % 72 % 1008,5 hPa 0,0 l/m 1,1 km/h (1 Bft) NO 45 10,1 C 12,4 C 2,4 km/h (1 Bft)
20.10.2019 12:38 15,8 C 12,4 C 19,5 C 12,3 C 70 % 86 % 72 % 1008,5 hPa 0,0 l/m 1,0 km/h (0 Bft) O-SO 112 10,1 C 12,4 C 4,3 km/h (1 Bft)
20.10.2019 12:36 15,8 C 12,2 C 19,4 C 12,3 C 70 % 86 % 72 % 1008,5 hPa 0,0 l/m 1,0 km/h (0 Bft) N-NO 22 9,9 C 12,2 C 2,7 km/h (1 Bft)
20.10.2019 12:34 15,8 C 12,0 C 19,0 C 12,3 C 70 % 86 % 72 % 1008,5 hPa 0,0 l/m 1,0 km/h (0 Bft) W-SW 247 9,7 C 12,0 C 6,5 km/h (2 Bft)
20.10.2019 12:32 15,8 C 12,0 C 18,7 C 12,3 C 70 % 86 % 72 % 1008,5 hPa 0,0 l/m 0,6 km/h (0 Bft) NO 45 9,7 C 12,0 C 3,6 km/h (1 Bft)
20.10.2019 12:30 15,6 C 12,3 C 19,0 C 12,3 C 70 % 86 % 72 % 1008,5 hPa 0,0 l/m 0,5 km/h (0 Bft) NO 45 10,0 C 12,3 C 3,9 km/h (1 Bft)
20.10.2019 12:28 15,6 C 12,7 C 19,5 C 12,3 C 70 % 87 % 72 % 1008,5 hPa 0,0 l/m 0,5 km/h (0 Bft) O-SO 112 10,6 C 12,7 C 0,0 km/h (0 Bft)
20.10.2019 12:26 15,6 C 12,7 C 19,7 C 12,3 C 70 % 87 % 72 % 1008,5 hPa 0,0 l/m 0,3 km/h (0 Bft) O-SO 112 10,6 C 12,7 C 0,0 km/h (0 Bft)
20.10.2019 12:24 15,6 C 12,7 C 19,7 C 12,3 C 70 % 89 % 72 % 1008,4 hPa 0,0 l/m 0,3 km/h (0 Bft) O 90 10,9 C 12,7 C 0,0 km/h (0 Bft)
20.10.2019 12:22 15,6 C 12,7 C 19,8 C 12,3 C 70 % 90 % 72 % 1008,4 hPa 0,0 l/m 0,5 km/h (0 Bft) W 270 11,1 C 12,7 C 0,0 km/h (0 Bft)
20.10.2019 12:20 15,6 C 12,6 C 19,6 C 12,3 C 70 % 91 % 72 % 1008,4 hPa 0,0 l/m 0,5 km/h (0 Bft) NO 45 11,2 C 12,6 C 0,0 km/h (0 Bft)
20.10.2019 12:18 15,4 C 12,0 C 18,8 C 12,3 C 70 % 91 % 72 % 1008,4 hPa 0,0 l/m 0,3 km/h (0 Bft) O 90 10,6 C 12,0 C 0,0 km/h (0 Bft)
20.10.2019 12:16 15,5 C 11,6 C 18,1 C 12,3 C 70 % 91 % 72 % 1008,4 hPa 0,0 l/m 0,3 km/h (0 Bft) O-NO 67 10,2 C 11,6 C 0,0 km/h (0 Bft)
20.10.2019 12:14 15,3 C 11,3 C 17,2 C 12,3 C 70 % 92 % 72 % 1008,4 hPa 0,0 l/m 0,0 km/h (0 Bft) SO 135 10,0 C 11,3 C 0,0 km/h (0 Bft)
20.10.2019 12:12 15,4 C 10,9 C 15,6 C 12,3 C 70 % 92 % 72 % 1008,4 hPa 0,0 l/m 0,0 km/h (0 Bft) SO 135 9,7 C 10,9 C 0,0 km/h (0 Bft)
20.10.2019 12:10 15,2 C 10,8 C 15,2 C 12,3 C 70 % 92 % 72 % 1008,4 hPa 0,0 l/m 0,0 km/h (0 Bft) SO 135 9,6 C 10,8 C 0,0 km/h (0 Bft)
20.10.2019 12:08 15,4 C 10,6 C 14,5 C 12,3 C 70 % 92 % 72 % 1008,4 hPa 0,0 l/m 0,0 km/h (0 Bft) SO 135 9,4 C 10,6 C 0,0 km/h (0 Bft)
20.10.2019 12:06 15,2 C 10,5 C 14,1 C 12,3 C 70 % 92 % 72 % 1008,4 hPa 0,0 l/m 0,0 km/h (0 Bft) SO 135 9,3 C 10,5 C 0,0 km/h (0 Bft)
20.10.2019 12:04 15,4 C 10,5 C 13,9 C 12,3 C 70 % 92 % 72 % 1008,4 hPa 0,0 l/m 0,0 km/h (0 Bft) O-SO 112 9,3 C 10,5 C 0,0 km/h (0 Bft)
20.10.2019 12:02 15,2 C 10,5 C 14,2 C 12,3 C 70 % 92 % 72 % 1008,4 hPa 0,0 l/m 0,2 km/h (0 Bft) W-SW 247 9,3 C 10,5 C 0,0 km/h (0 Bft)
20.10.2019 12:00 15,4 C 10,3 C 14,2 C 12,3 C 70 % 92 % 72 % 1008,4 hPa 0,0 l/m 0,2 km/h (0 Bft) N-NW 337 9,1 C 10,3 C 0,0 km/h (0 Bft)
20.10.2019 11:58 15,2 C 10,3 C 14,1 C 12,3 C 70 % 92 % 72 % 1008,4 hPa 0,0 l/m 0,3 km/h (0 Bft) S-SO 157 9,1 C 10,3 C 0,0 km/h (0 Bft)
20.10.2019 11:56 15,2 C 10,3 C 14,2 C 12,3 C 70 % 92 % 72 % 1008,4 hPa 0,0 l/m 0,3 km/h (0 Bft) O-NO 67 9,1 C 10,3 C 0,0 km/h (0 Bft)
20.10.2019 11:54 15,2 C 10,2 C 14,2 C 12,3 C 70 % 92 % 72 % 1008,4 hPa 0,0 l/m 0,3 km/h (0 Bft) SW 225 9,0 C 10,2 C 0,0 km/h (0 Bft)
20.10.2019 11:52 15,4 C 10,3 C 14,3 C 12,3 C 70 % 92 % 72 % 1008,4 hPa 0,0 l/m 0,5 km/h (0 Bft) SO 135 9,1 C 10,3 C 2,4 km/h (1 Bft)
20.10.2019 11:50 15,2 C 10,3 C 14,8 C 12,3 C 70 % 92 % 72 % 1008,4 hPa 0,0 l/m 0,5 km/h (0 Bft) O-SO 112 9,1 C 10,3 C 0,0 km/h (0 Bft)
20.10.2019 11:48 15,2 C 10,3 C 14,9 C 12,3 C 70 % 92 % 72 % 1008,4 hPa 0,0 l/m 0,5 km/h (0 Bft) S 180 9,1 C 10,3 C 0,0 km/h (0 Bft)
20.10.2019 11:46 15,3 C 10,3 C 14,6 C 12,3 C 70 % 92 % 72 % 1008,4 hPa 0,0 l/m 0,3 km/h (0 Bft) O-NO 67 9,1 C 10,3 C 0,0 km/h (0 Bft)
20.10.2019 11:44 15,2 C 10,2 C 14,4 C 12,3 C 70 % 92 % 72 % 1008,4 hPa 0,0 l/m 0,3 km/h (0 Bft) S-SO 157 9,0 C 10,2 C 0,0 km/h (0 Bft)
20.10.2019 11:42 15,2 C 10,3 C 14,5 C 12,3 C 70 % 92 % 72 % 1008,4 hPa 0,0 l/m 0,3 km/h (0 Bft) S 180 9,1 C 10,3 C 2,7 km/h (1 Bft)
20.10.2019 11:40 15,2 C 10,4 C 14,3 C 12,3 C 70 % 93 % 72 % 1008,4 hPa 0,0 l/m 0,2 km/h (0 Bft) N-NW 337 9,3 C 10,4 C 0,0 km/h (0 Bft)
20.10.2019 11:38 15,2 C 10,4 C 14,7 C 12,3 C 70 % 93 % 72 % 1008,4 hPa 0,0 l/m 0,2 km/h (0 Bft) W-SW 247 9,3 C 10,4 C 3,4 km/h (1 Bft)
20.10.2019 11:36 15,2 C 10,3 C 14,6 C 12,3 C 70 % 93 % 72 % 1008,4 hPa 0,0 l/m 0,2 km/h (0 Bft) W 270 9,2 C 10,3 C 0,0 km/h (0 Bft)
20.10.2019 11:34 15,2 C 10,3 C 14,7 C 12,3 C 70 % 93 % 72 % 1008,4 hPa 0,0 l/m 0,2 km/h (0 Bft) S 180 9,2 C 10,3 C 0,0 km/h (0 Bft)
20.10.2019 11:32 15,3 C 10,1 C 14,7 C 12,3 C 70 % 93 % 72 % 1008,4 hPa 0,0 l/m 0,2 km/h (0 Bft) W-SW 247 9,0 C 10,1 C 0,0 km/h (0 Bft)
20.10.2019 11:30 15,3 C 10,1 C 14,5 C 12,3 C 70 % 93 % 72 % 1008,4 hPa 0,0 l/m 0,2 km/h (0 Bft) O-NO 67 9,0 C 10,1 C 0,0 km/h (0 Bft)
20.10.2019 11:28 15,2 C 10,0 C 14,4 C 12,3 C 70 % 93 % 72 % 1008,4 hPa 0,0 l/m 0,3 km/h (0 Bft) S-SO 157 8,9 C 10,0 C 0,0 km/h (0 Bft)
20.10.2019 11:26 15,1 C 10,1 C 14,5 C 12,3 C 70 % 93 % 72 % 1008,4 hPa 0,0 l/m 0,3 km/h (0 Bft) SO 135 9,0 C 10,1 C 0,0 km/h (0 Bft)
20.10.2019 11:24 15,2 C 10,1 C 14,7 C 12,3 C 70 % 93 % 72 % 1008,6 hPa 0,0 l/m 0,2 km/h (0 Bft) S-SO 157 9,0 C 10,1 C 0,0 km/h (0 Bft)
20.10.2019 11:22 15,2 C 10,2 C 15,0 C 12,3 C 70 % 93 % 72 % 1008,6 hPa 0,0 l/m 0,2 km/h (0 Bft) N-NW 337 9,1 C 10,2 C 3,1 km/h (1 Bft)
20.10.2019 11:20 15,3 C 10,3 C 15,7 C 12,3 C 70 % 93 % 72 % 1008,6 hPa 0,0 l/m 0,0 km/h (0 Bft) SO 135 9,2 C 10,3 C 0,0 km/h (0 Bft)
20.10.2019 11:18 15,2 C 10,3 C 15,5 C 12,3 C 70 % 94 % 72 % 1008,6 hPa 0,0 l/m 0,0 km/h (0 Bft) S 180 9,4 C 10,3 C 0,0 km/h (0 Bft)
20.10.2019 11:16 15,3 C 10,3 C 15,5 C 12,3 C 70 % 94 % 72 % 1008,6 hPa 0,0 l/m 0,0 km/h (0 Bft) SO 135 9,4 C 10,3 C 0,0 km/h (0 Bft)
20.10.2019 11:14 15,3 C 10,3 C 15,7 C 12,3 C 70 % 94 % 72 % 1008,6 hPa 0,0 l/m 0,2 km/h (0 Bft) S-SO 157 9,4 C 10,3 C 0,0 km/h (0 Bft)
20.10.2019 11:12 15,1 C 10,3 C 15,7 C 12,3 C 70 % 94 % 72 % 1008,6 hPa 0,0 l/m 0,2 km/h (0 Bft) N-NO 22 9,4 C 10,3 C 0,0 km/h (0 Bft)
20.10.2019 11:10 15,1 C 10,3 C 15,5 C 12,3 C 70 % 94 % 72 % 1008,6 hPa 0,0 l/m 0,3 km/h (0 Bft) W-SW 247 9,4 C 10,3 C 0,0 km/h (0 Bft)
20.10.2019 11:08 15,1 C 10,2 C 15,5 C 12,3 C 70 % 94 % 72 % 1008,6 hPa 0,0 l/m 0,3 km/h (0 Bft) O 90 9,3 C 10,2 C 0,0 km/h (0 Bft)
20.10.2019 11:06 15,3 C 10,2 C 15,3 C 12,3 C 70 % 94 % 72 % 1008,6 hPa 0,0 l/m 0,6 km/h (0 Bft) S-SW 202 9,3 C 10,2 C 0,0 km/h (0 Bft)
20.10.2019 11:04 15,1 C 10,4 C 15,5 C 12,3 C 70 % 95 % 72 % 1008,6 hPa 0,0 l/m 0,6 km/h (0 Bft) N-NW 337 9,6 C 10,4 C 0,0 km/h (0 Bft)
20.10.2019 11:02 15,1 C 10,6 C 16,1 C 12,3 C 70 % 95 % 72 % 1008,6 hPa 0,0 l/m 1,1 km/h (1 Bft) SO 135 9,8 C 10,6 C 3,4 km/h (1 Bft)
20.10.2019 11:00 15,2 C 10,6 C 16,8 C 12,3 C 70 % 95 % 72 % 1008,6 hPa 0,0 l/m 1,0 km/h (0 Bft) O-NO 67 9,8 C 10,6 C 2,9 km/h (1 Bft)
20.10.2019 10:58 15,2 C 10,4 C 16,6 C 12,3 C 70 % 95 % 72 % 1008,6 hPa 0,0 l/m 0,8 km/h (0 Bft) NW 315 9,6 C 10,4 C 0,0 km/h (0 Bft)
20.10.2019 10:56 15,2 C 10,3 C 15,9 C 12,3 C 70 % 95 % 72 % 1008,6 hPa 0,0 l/m 0,8 km/h (0 Bft) SO 135 9,5 C 10,3 C 3,9 km/h (1 Bft)
20.10.2019 10:54 15,1 C 10,3 C 15,8 C 12,3 C 70 % 96 % 72 % 1008,6 hPa 0,0 l/m 0,8 km/h (0 Bft) NO 45 9,7 C 10,3 C 3,4 km/h (1 Bft)
20.10.2019 10:52 15,1 C 10,2 C 15,7 C 12,3 C 70 % 96 % 72 % 1008,6 hPa 0,0 l/m 0,8 km/h (0 Bft) O-SO 112 9,6 C 10,2 C 3,6 km/h (1 Bft)
20.10.2019 10:50 14,9 C 10,0 C 14,8 C 12,3 C 70 % 96 % 72 % 1008,6 hPa 0,0 l/m 0,8 km/h (0 Bft) SO 135 9,4 C 10,0 C 0,0 km/h (0 Bft)
20.10.2019 10:48 15,0 C 9,8 C 14,4 C 12,3 C 70 % 96 % 72 % 1008,6 hPa 0,0 l/m 1,0 km/h (0 Bft) NW 315 9,2 C 9,8 C 0,0 km/h (0 Bft)
20.10.2019 10:46 15,0 C 9,6 C 14,3 C 12,3 C 70 % 96 % 72 % 1008,6 hPa 0,0 l/m 0,8 km/h (0 Bft) W-NW 292 9,0 C 9,6 C 0,0 km/h (0 Bft)
20.10.2019 10:44 15,0 C 9,6 C 14,2 C 12,3 C 70 % 96 % 72 % 1008,4 hPa 0,0 l/m 1,0 km/h (0 Bft) W-SW 247 9,0 C 9,6 C 6,3 km/h (2 Bft)
20.10.2019 10:42 14,8 C 9,5 C 14,3 C 12,3 C 70 % 96 % 72 % 1008,4 hPa 0,0 l/m 0,6 km/h (0 Bft) O-SO 112 8,9 C 9,5 C 3,6 km/h (1 Bft)
20.10.2019 10:40 15,0 C 9,3 C 14,0 C 12,3 C 70 % 96 % 72 % 1008,4 hPa 0,0 l/m 0,5 km/h (0 Bft) SO 135 8,7 C 9,3 C 3,6 km/h (1 Bft)
20.10.2019 10:38 14,9 C 9,3 C 13,3 C 12,3 C 70 % 96 % 72 % 1008,4 hPa 0,0 l/m 0,5 km/h (0 Bft) W-SW 247 8,7 C 9,3 C 3,6 km/h (1 Bft)
20.10.2019 10:36 14,8 C 9,4 C 13,3 C 12,3 C 70 % 96 % 72 % 1008,4 hPa 0,0 l/m 0,3 km/h (0 Bft) O-NO 67 8,8 C 9,4 C 0,0 km/h (0 Bft)
20.10.2019 10:34 14,9 C 9,0 C 13,4 C 12,3 C 70 % 96 % 72 % 1008,4 hPa 0,0 l/m 0,5 km/h (0 Bft) W 270 8,4 C 9,0 C 2,4 km/h (1 Bft)
20.10.2019 10:32 14,9 C 9,0 C 12,9 C 12,3 C 70 % 96 % 72 % 1008,4 hPa 0,0 l/m 0,8 km/h (0 Bft) NW 315 8,4 C 9,0 C 0,0 km/h (0 Bft)
20.10.2019 10:30 14,9 C 8,9 C 12,7 C 12,3 C 70 % 96 % 72 % 1008,4 hPa 0,0 l/m 0,8 km/h (0 Bft) O-NO 67 8,3 C 8,9 C 2,7 km/h (1 Bft)
20.10.2019 10:28 14,9 C 8,9 C 12,8 C 12,3 C 71 % 96 % 72 % 1008,4 hPa 0,0 l/m 0,8 km/h (0 Bft) O-NO 67 8,3 C 8,9 C 0,0 km/h (0 Bft)
20.10.2019 10:26 14,9 C 8,9 C 12,9 C 12,3 C 71 % 96 % 72 % 1008,4 hPa 0,0 l/m 1,1 km/h (1 Bft) O-NO 67 8,3 C 8,9 C 0,0 km/h (0 Bft)
20.10.2019 10:24 14,9 C 8,9 C 13,0 C 12,3 C 71 % 96 % 72 % 1008,1 hPa 0,0 l/m 0,8 km/h (0 Bft) O-SO 112 8,3 C 8,9 C 0,0 km/h (0 Bft)
20.10.2019 10:22 14,8 C 9,0 C 13,3 C 12,3 C 71 % 96 % 72 % 1008,1 hPa 0,0 l/m 0,6 km/h (0 Bft) O-SO 112 8,4 C 9,0 C 3,6 km/h (1 Bft)
20.10.2019 10:20 14,9 C 9,2 C 13,7 C 12,3 C 71 % 96 % 72 % 1008,1 hPa 0,0 l/m 0,6 km/h (0 Bft) S-SO 157 8,6 C 9,2 C 2,4 km/h (1 Bft)
20.10.2019 10:18 14,8 C 9,3 C 14,0 C 12,3 C 71 % 96 % 72 % 1008,1 hPa 0,0 l/m 0,5 km/h (0 Bft) O 90 8,7 C 9,3 C 2,4 km/h (1 Bft)
20.10.2019 10:16 14,8 C 9,4 C 13,9 C 12,3 C 71 % 96 % 72 % 1008,1 hPa 0,0 l/m 0,6 km/h (0 Bft) O-NO 67 8,8 C 9,4 C 3,6 km/h (1 Bft)
20.10.2019 10:14 14,8 C 9,3 C 13,4 C 12,3 C 71 % 96 % 72 % 1008,1 hPa 0,0 l/m 0,5 km/h (0 Bft) S-SO 157 8,7 C 9,3 C 0,0 km/h (0 Bft)
20.10.2019 10:12 14,8 C 9,3 C 13,2 C 12,3 C 71 % 96 % 72 % 1008,1 hPa 0,0 l/m 0,5 km/h (0 Bft) N-NW 337 8,7 C 9,3 C 0,0 km/h (0 Bft)
20.10.2019 10:10 14,8 C 9,3 C 13,0 C 12,3 C 71 % 96 % 72 % 1008,1 hPa 0,0 l/m 0,5 km/h (0 Bft) W 270 8,7 C 9,3 C 3,1 km/h (1 Bft)
20.10.2019 10:08 14,8 C 9,3 C 13,0 C 12,3 C 71 % 96 % 72 % 1008,1 hPa 0,0 l/m 0,2 km/h (0 Bft) W-NW 292 8,7 C 9,3 C 0,0 km/h (0 Bft)
20.10.2019 10:06 14,8 C 9,0 C 12,7 C 12,3 C 71 % 96 % 72 % 1008,1 hPa 0,0 l/m 0,2 km/h (0 Bft) NW 315 8,4 C 9,0 C 4,6 km/h (1 Bft)
20.10.2019 10:04 14,6 C 8,9 C 12,8 C 12,3 C 71 % 96 % 72 % 1008,2 hPa 0,0 l/m 0,0 km/h (0 Bft) W-NW 292 8,3 C 8,9 C 0,0 km/h (0 Bft)
20.10.2019 10:02 14,7 C 8,9 C 12,7 C 12,3 C 71 % 96 % 72 % 1008,2 hPa 0,0 l/m 0,0 km/h (0 Bft) N-NO 22 8,3 C 8,9 C 0,0 km/h (0 Bft)
20.10.2019 10:00 14,7 C 8,9 C 12,6 C 12,3 C 71 % 96 % 72 % 1008,2 hPa 0,0 l/m 0,0 km/h (0 Bft) W 270 8,3 C 8,9 C 0,0 km/h (0 Bft)
20.10.2019 09:58 14,7 C 8,8 C 12,6 C 12,3 C 71 % 96 % 72 % 1008,2 hPa 0,0 l/m 0,0 km/h (0 Bft) SO 135 8,2 C 8,8 C 0,0 km/h (0 Bft)
20.10.2019 09:56 14,7 C 8,7 C 12,4 C 12,3 C 71 % 96 % 72 % 1008,2 hPa 0,0 l/m 0,0 km/h (0 Bft) S-SO 157 8,1 C 8,7 C 0,0 km/h (0 Bft)
20.10.2019 09:54 14,7 C 8,9 C 12,3 C 12,3 C 71 % 96 % 72 % 1008,2 hPa 0,0 l/m 0,0 km/h (0 Bft) S 180 8,3 C 8,9 C 0,0 km/h (0 Bft)
20.10.2019 09:52 14,7 C 8,7 C 12,1 C 12,3 C 71 % 96 % 72 % 1008,2 hPa 0,0 l/m 0,0 km/h (0 Bft) SW 225 8,1 C 8,7 C 0,0 km/h (0 Bft)
20.10.2019 09:50 14,6 C 8,8 C 12,1 C 12,3 C 71 % 96 % 72 % 1008,2 hPa 0,0 l/m 0,0 km/h (0 Bft) NO 45 8,2 C 8,8 C 0,0 km/h (0 Bft)
20.10.2019 09:48 14,6 C 8,9 C 12,1 C 12,3 C 71 % 96 % 72 % 1008,2 hPa 0,0 l/m 0,0 km/h (0 Bft) S-SO 157 8,3 C 8,9 C 0,0 km/h (0 Bft)
20.10.2019 09:46 14,6 C 8,8 C 12,2 C 12,3 C 71 % 96 % 72 % 1008,2 hPa 0,0 l/m 0,0 km/h (0 Bft) NO 45 8,2 C 8,8 C 0,0 km/h (0 Bft)
20.10.2019 09:44 14,6 C 8,7 C 12,2 C 12,3 C 71 % 96 % 72 % 1007,9 hPa 0,0 l/m 0,0 km/h (0 Bft) SO 135 8,1 C 8,7 C 0,0 km/h (0 Bft)
20.10.2019 09:42 14,6 C 8,7 C 12,0 C 12,3 C 71 % 96 % 72 % 1007,9 hPa 0,0 l/m 0,0 km/h (0 Bft) W-SW 247 8,1 C 8,7 C 0,0 km/h (0 Bft)
20.10.2019 09:40 14,6 C 8,7 C 11,7 C 12,3 C 71 % 96 % 72 % 1007,9 hPa 0,0 l/m 0,0 km/h (0 Bft) W-SW 247 8,1 C 8,7 C 0,0 km/h (0 Bft)
20.10.2019 09:38 14,6 C 8,7 C 11,7 C 12,3 C 71 % 96 % 72 % 1007,9 hPa 0,0 l/m 0,0 km/h (0 Bft) W-NW 292 8,1 C 8,7 C 0,0 km/h (0 Bft)
20.10.2019 09:36 14,6 C 8,8 C 11,6 C 12,3 C 71 % 96 % 72 % 1007,9 hPa 0,0 l/m 0,0 km/h (0 Bft) NW 315 8,2 C 8,8 C 0,0 km/h (0 Bft)
20.10.2019 09:34 14,6 C 8,7 C 11,5 C 12,3 C 71 % 96 % 72 % 1007,9 hPa 0,0 l/m 0,0 km/h (0 Bft) W 270 8,1 C 8,7 C 0,0 km/h (0 Bft)
20.10.2019 09:32 14,4 C 8,7 C 11,4 C 12,3 C 71 % 96 % 72 % 1007,9 hPa 0,0 l/m 0,0 km/h (0 Bft) N-NW 337 8,1 C 8,7 C 0,0 km/h (0 Bft)
20.10.2019 09:30 14,4 C 8,7 C 11,3 C 12,3 C 71 % 96 % 72 % 1007,9 hPa 0,0 l/m 0,0 km/h (0 Bft) W 270 8,1 C 8,7 C 0,0 km/h (0 Bft)
20.10.2019 09:28 14,6 C 8,5 C 11,1 C 12,3 C 71 % 95 % 72 % 1007,9 hPa 0,0 l/m 0,0 km/h (0 Bft) N-NW 337 7,7 C 8,5 C 0,0 km/h (0 Bft)
20.10.2019 09:26 14,4 C 8,5 C 11,1 C 12,3 C 71 % 95 % 72 % 1007,9 hPa 0,0 l/m 0,0 km/h (0 Bft) W 270 7,7 C 8,5 C 0,0 km/h (0 Bft)
20.10.2019 09:24 14,4 C 8,6 C 11,1 C 12,3 C 71 % 95 % 72 % 1008,0 hPa 0,0 l/m 0,0 km/h (0 Bft) N-NW 337 7,8 C 8,6 C 0,0 km/h (0 Bft)
20.10.2019 09:22 14,4 C 8,8 C 11,1 C 12,3 C 71 % 96 % 72 % 1008,0 hPa 0,0 l/m 0,2 km/h (0 Bft) W-NW 292 8,2 C 8,8 C 0,0 km/h (0 Bft)
20.10.2019 09:20 14,4 C 8,6 C 10,9 C 12,3 C 71 % 96 % 72 % 1008,0 hPa 0,0 l/m 0,2 km/h (0 Bft) NW 315 8,0 C 8,6 C 0,0 km/h (0 Bft)
20.10.2019 09:18 14,4 C 8,4 C 10,8 C 12,3 C 71 % 95 % 72 % 1008,0 hPa 0,0 l/m 0,2 km/h (0 Bft) S-SW 202 7,6 C 8,4 C 0,0 km/h (0 Bft)
20.10.2019 09:16 14,4 C 8,3 C 10,6 C 12,3 C 71 % 95 % 72 % 1008,0 hPa 0,0 l/m 0,2 km/h (0 Bft) N-NO 22 7,5 C 8,3 C 0,0 km/h (0 Bft)
20.10.2019 09:14 14,4 C 8,4 C 10,6 C 12,3 C 71 % 95 % 72 % 1008,0 hPa 0,0 l/m 0,3 km/h (0 Bft) SO 135 7,6 C 8,4 C 5,6 km/h (1 Bft)
20.10.2019 09:12 14,4 C 8,5 C 10,5 C 12,3 C 71 % 95 % 72 % 1008,0 hPa 0,0 l/m 0,2 km/h (0 Bft) O-NO 67 7,7 C 8,5 C 2,4 km/h (1 Bft)
20.10.2019 09:10 14,4 C 8,4 C 10,5 C 12,3 C 71 % 95 % 72 % 1008,0 hPa 0,0 l/m 0,3 km/h (0 Bft) W 270 7,6 C 8,4 C 0,0 km/h (0 Bft)
20.10.2019 09:08 14,5 C 8,4 C 10,5 C 12,3 C 71 % 95 % 72 % 1008,0 hPa 0,0 l/m 0,2 km/h (0 Bft) NW 315 7,6 C 8,4 C 0,0 km/h (0 Bft)
20.10.2019 09:06 14,4 C 8,4 C 10,6 C 12,3 C 71 % 95 % 72 % 1008,0 hPa 0,0 l/m 0,2 km/h (0 Bft) W 270 7,6 C 8,4 C 0,0 km/h (0 Bft)
20.10.2019 09:04 14,4 C 8,3 C 10,5 C 12,3 C 71 % 95 % 72 % 1007,8 hPa 0,0 l/m 0,2 km/h (0 Bft) O-NO 67 7,5 C 8,3 C 0,0 km/h (0 Bft)
20.10.2019 09:02 14,3 C 8,3 C 10,4 C 12,3 C 71 % 95 % 72 % 1007,8 hPa 0,0 l/m 0,2 km/h (0 Bft) NO 45 7,5 C 8,3 C 0,0 km/h (0 Bft)
20.10.2019 09:00 14,4 C 8,3 C 10,4 C 12,3 C 71 % 95 % 72 % 1007,8 hPa 0,0 l/m 0,0 km/h (0 Bft) O-NO 67 7,5 C 8,3 C 0,0 km/h (0 Bft)
20.10.2019 08:58 14,3 C 8,3 C 10,3 C 12,3 C 71 % 95 % 72 % 1007,8 hPa 0,0 l/m 0,0 km/h (0 Bft) SO 135 7,5 C 8,3 C 0,0 km/h (0 Bft)
20.10.2019 08:56 14,3 C 8,3 C 10,3 C 12,3 C 71 % 95 % 72 % 1007,8 hPa 0,0 l/m 0,0 km/h (0 Bft) SO 135 7,5 C 8,3 C 0,0 km/h (0 Bft)
20.10.2019 08:54 14,3 C 8,3 C 10,2 C 12,3 C 71 % 95 % 72 % 1007,8 hPa 0,0 l/m 0,0 km/h (0 Bft) O 90 7,5 C 8,3 C 0,0 km/h (0 Bft)
20.10.2019 08:52 14,3 C 8,3 C 10,1 C 12,3 C 71 % 95 % 72 % 1007,8 hPa 0,0 l/m 0,0 km/h (0 Bft) SO 135 7,5 C 8,3 C 0,0 km/h (0 Bft)
20.10.2019 08:50 14,3 C 8,4 C 10,0 C 12,3 C 71 % 95 % 72 % 1007,8 hPa 0,0 l/m 0,0 km/h (0 Bft) O-SO 112 7,6 C 8,4 C 0,0 km/h (0 Bft)
20.10.2019 08:48 14,3 C 8,4 C 9,9 C 12,3 C 71 % 95 % 72 % 1007,8 hPa 0,0 l/m 0,0 km/h (0 Bft) O-NO 67 7,6 C 8,4 C 0,0 km/h (0 Bft)
20.10.2019 08:46 14,3 C 8,4 C 9,9 C 12,3 C 71 % 95 % 72 % 1007,8 hPa 0,0 l/m 0,0 km/h (0 Bft) W-NW 292 7,6 C 8,4 C 0,0 km/h (0 Bft)
20.10.2019 08:44 14,3 C 8,4 C 9,9 C 12,3 C 71 % 95 % 72 % 1007,8 hPa 0,0 l/m 0,0 km/h (0 Bft) N-NW 337 7,6 C 8,4 C 0,0 km/h (0 Bft)
20.10.2019 08:42 14,3 C 8,4 C 9,8 C 12,3 C 71 % 95 % 72 % 1007,8 hPa 0,0 l/m 0,0 km/h (0 Bft) N-NO 22 7,6 C 8,4 C 0,0 km/h (0 Bft)
20.10.2019 08:40 14,3 C 8,4 C 9,8 C 12,3 C 71 % 95 % 72 % 1007,8 hPa 0,0 l/m 0,0 km/h (0 Bft) N-NO 22 7,6 C 8,4 C 0,0 km/h (0 Bft)
20.10.2019 08:38 14,3 C 8,4 C 9,8 C 12,3 C 71 % 95 % 72 % 1007,8 hPa 0,0 l/m 0,0 km/h (0 Bft) NO 45 7,6 C 8,4 C 0,0 km/h (0 Bft)
20.10.2019 08:36 14,3 C 8,3 C 9,8 C 12,3 C 71 % 95 % 72 % 1007,8 hPa 0,0 l/m 0,0 km/h (0 Bft) O-NO 67 7,5 C 8,3 C 0,0 km/h (0 Bft)
20.10.2019 08:34 14,3 C 8,3 C 9,8 C 12,3 C 71 % 95 % 72 % 1007,8 hPa 0,0 l/m 0,0 km/h (0 Bft) O-NO 67 7,5 C 8,3 C 0,0 km/h (0 Bft)
20.10.2019 08:32 14,4 C 8,3 C 9,8 C 12,3 C 71 % 95 % 72 % 1007,8 hPa 0,0 l/m 0,0 km/h (0 Bft) O-NO 67 7,5 C 8,3 C 0,0 km/h (0 Bft)
20.10.2019 08:30 14,4 C 8,3 C 9,7 C 12,3 C 71 % 95 % 72 % 1007,8 hPa 0,0 l/m 0,0 km/h (0 Bft) O-NO 67 7,5 C 8,3 C 0,0 km/h (0 Bft)
20.10.2019 08:28 14,3 C 8,3 C 9,7 C 12,3 C 71 % 95 % 72 % 1007,8 hPa 0,0 l/m 0,0 km/h (0 Bft) O-SO 112 7,5 C 8,3 C 0,0 km/h (0 Bft)
20.10.2019 08:26 14,3 C 8,4 C 9,7 C 12,3 C 71 % 95 % 72 % 1007,8 hPa 0,0 l/m 0,0 km/h (0 Bft) SO 135 7,6 C 8,4 C 0,0 km/h (0 Bft)
20.10.2019 08:24 14,3 C 8,4 C 9,7 C 12,3 C 71 % 95 % 72 % 1007,7 hPa 0,0 l/m 0,0 km/h (0 Bft) W 270 7,6 C 8,4 C 0,0 km/h (0 Bft)
20.10.2019 08:22 14,3 C 8,4 C 9,7 C 12,3 C 71 % 95 % 72 % 1007,7 hPa 0,0 l/m 0,0 km/h (0 Bft) N 360 7,6 C 8,4 C 0,0 km/h (0 Bft)
20.10.2019 08:20 14,4 C 8,4 C 9,7 C 12,3 C 71 % 95 % 72 % 1007,7 hPa 0,0 l/m 0,0 km/h (0 Bft) N-NO 22 7,6 C 8,4 C 0,0 km/h (0 Bft)
20.10.2019 08:18 14,4 C 8,4 C 9,7 C 12,3 C 71 % 95 % 72 % 1007,7 hPa 0,0 l/m 0,0 km/h (0 Bft) NW 315 7,6 C 8,4 C 0,0 km/h (0 Bft)
20.10.2019 08:16 14,4 C 8,4 C 9,6 C 12,3 C 71 % 95 % 72 % 1007,7 hPa 0,0 l/m 0,0 km/h (0 Bft) N-NW 337 7,6 C 8,4 C 0,0 km/h (0 Bft)
20.10.2019 08:14 14,4 C 8,4 C 9,7 C 12,3 C 71 % 95 % 72 % 1007,7 hPa 0,0 l/m 0,0 km/h (0 Bft) S-SO 157 7,6 C 8,4 C 0,0 km/h (0 Bft)
20.10.2019 08:12 14,4 C 8,4 C 9,7 C 12,3 C 71 % 95 % 72 % 1007,7 hPa 0,0 l/m 0,0 km/h (0 Bft) S-SO 157 7,6 C 8,4 C 0,0 km/h (0 Bft)
20.10.2019 08:10 14,4 C 8,4 C 9,6 C 12,3 C 71 % 95 % 72 % 1007,7 hPa 0,0 l/m 0,0 km/h (0 Bft) S-SO 157 7,6 C 8,4 C 0,0 km/h (0 Bft)
20.10.2019 08:08 14,4 C 8,4 C 9,6 C 12,3 C 71 % 95 % 72 % 1007,7 hPa 0,0 l/m 0,0 km/h (0 Bft) S-SO 157 7,6 C 8,4 C 0,0 km/h (0 Bft)
20.10.2019 08:06 14,4 C 8,4 C 9,6 C 12,3 C 71 % 95 % 72 % 1007,7 hPa 0,0 l/m 0,0 km/h (0 Bft) S-SO 157 7,6 C 8,4 C 0,0 km/h (0 Bft)
20.10.2019 08:04 14,4 C 8,4 C 9,6 C 12,3 C 71 % 95 % 72 % 1007,5 hPa 0,0 l/m 0,0 km/h (0 Bft) S-SO 157 7,6 C 8,4 C 0,0 km/h (0 Bft)
20.10.2019 08:02 14,4 C 8,4 C 9,6 C 12,3 C 71 % 95 % 72 % 1007,5 hPa 0,0 l/m 0,0 km/h (0 Bft) S 180 7,6 C 8,4 C 0,0 km/h (0 Bft)
20.10.2019 08:00 14,4 C 8,4 C 9,6 C 12,3 C 71 % 95 % 72 % 1007,5 hPa 0,0 l/m 0,2 km/h (0 Bft) W 270 7,6 C 8,4 C 0,0 km/h (0 Bft)
20.10.2019 07:58 14,4 C 8,4 C 9,6 C 12,3 C 71 % 95 % 72 % 1007,5 hPa 0,0 l/m 0,3 km/h (0 Bft) NW 315 7,6 C 8,4 C 0,0 km/h (0 Bft)
20.10.2019 07:56 14,2 C 8,4 C 9,6 C 12,3 C 71 % 95 % 72 % 1007,5 hPa 0,0 l/m 0,3 km/h (0 Bft) NW 315 7,6 C 8,4 C 0,0 km/h (0 Bft)
20.10.2019 07:54 14,2 C 8,4 C 9,5 C 12,3 C 71 % 95 % 72 % 1007,5 hPa 0,0 l/m 0,5 km/h (0 Bft) NW 315 7,6 C 8,4 C 0,0 km/h (0 Bft)
20.10.2019 07:52 14,2 C 8,4 C 9,5 C 12,3 C 71 % 95 % 72 % 1007,5 hPa 0,0 l/m 0,5 km/h (0 Bft) N-NW 337 7,6 C 8,4 C 0,0 km/h (0 Bft)
20.10.2019 07:50 14,3 C 8,4 C 9,5 C 12,3 C 71 % 95 % 72 % 1007,5 hPa 0,0 l/m 0,5 km/h (0 Bft) NW 315 7,6 C 8,4 C 2,4 km/h (1 Bft)
20.10.2019 07:48 14,3 C 8,4 C 9,5 C 12,3 C 71 % 95 % 72 % 1007,5 hPa 0,0 l/m 0,2 km/h (0 Bft) NW 315 7,6 C 8,4 C 4,1 km/h (1 Bft)
20.10.2019 07:46 14,3 C 8,4 C 9,5 C 12,3 C 71 % 95 % 72 % 1007,5 hPa 0,0 l/m 0,0 km/h (0 Bft) W-NW 292 7,6 C 8,4 C 0,0 km/h (0 Bft)
20.10.2019 07:44 14,3 C 8,4 C 9,4 C 12,3 C 71 % 95 % 72 % 1007,2 hPa 0,0 l/m 0,0 km/h (0 Bft) NW 315 7,6 C 8,4 C 0,0 km/h (0 Bft)
20.10.2019 07:42 14,3 C 8,3 C 9,5 C 12,3 C 71 % 95 % 72 % 1007,2 hPa 0,0 l/m 0,0 km/h (0 Bft) W-NW 292 7,5 C 8,3 C 0,0 km/h (0 Bft)
20.10.2019 07:40 14,3 C 8,4 C 9,5 C 12,3 C 71 % 95 % 72 % 1007,2 hPa 0,0 l/m 0,0 km/h (0 Bft) W-NW 292 7,6 C 8,4 C 0,0 km/h (0 Bft)
20.10.2019 07:38 14,3 C 8,4 C 9,5 C 12,3 C 71 % 95 % 72 % 1007,2 hPa 0,0 l/m 0,0 km/h (0 Bft) W-NW 292 7,6 C 8,4 C 0,0 km/h (0 Bft)
20.10.2019 07:36 14,1 C 8,4 C 9,6 C 12,3 C 71 % 95 % 72 % 1007,2 hPa 0,0 l/m 0,0 km/h (0 Bft) NW 315 7,6 C 8,4 C 0,0 km/h (0 Bft)
20.10.2019 07:34 14,3 C 8,4 C 9,6 C 12,3 C 71 % 95 % 72 % 1007,2 hPa 0,0 l/m 0,0 km/h (0 Bft) NW 315 7,6 C 8,4 C 0,0 km/h (0 Bft)
20.10.2019 07:32 14,3 C 8,4 C 9,6 C 12,3 C 71 % 95 % 72 % 1007,2 hPa 0,0 l/m 0,0 km/h (0 Bft) N-NW 337 7,6 C 8,4 C 0,0 km/h (0 Bft)
20.10.2019 07:30 14,1 C 8,4 C 9,6 C 12,3 C 71 % 95 % 72 % 1007,2 hPa 0,0 l/m 0,0 km/h (0 Bft) NW 315 7,6 C 8,4 C 0,0 km/h (0 Bft)
20.10.2019 07:28 14,2 C 8,4 C 9,6 C 12,3 C 71 % 95 % 72 % 1007,2 hPa 0,0 l/m 0,0 km/h (0 Bft) NW 315 7,6 C 8,4 C 2,7 km/h (1 Bft)
20.10.2019 07:26 14,2 C 8,4 C 9,6 C 12,3 C 71 % 95 % 72 % 1007,2 hPa 0,0 l/m 0,0 km/h (0 Bft) NW 315 7,6 C 8,4 C 0,0 km/h (0 Bft)
20.10.2019 07:24 14,2 C 8,4 C 9,6 C 12,3 C 71 % 95 % 72 % 1006,8 hPa 0,0 l/m 0,0 km/h (0 Bft) N 360 7,6 C 8,4 C 0,0 km/h (0 Bft)
20.10.2019 07:22 14,2 C 8,4 C 9,6 C 12,3 C 71 % 95 % 72 % 1006,8 hPa 0,0 l/m 0,0 km/h (0 Bft) N 360 7,6 C 8,4 C 0,0 km/h (0 Bft)
20.10.2019 07:20 14,2 C 8,4 C 9,6 C 12,3 C 71 % 95 % 72 % 1006,8 hPa 0,0 l/m 0,0 km/h (0 Bft) N 360 7,6 C 8,4 C 0,0 km/h (0 Bft)
20.10.2019 07:18 14,2 C 8,4 C 9,4 C 12,3 C 71 % 95 % 72 % 1006,8 hPa 0,0 l/m 0,0 km/h (0 Bft) N 360 7,6 C 8,4 C 0,0 km/h (0 Bft)
20.10.2019 07:16 14,2 C 8,4 C 9,5 C 12,3 C 71 % 95 % 72 % 1006,8 hPa 0,0 l/m 0,0 km/h (0 Bft) O-NO 67 7,6 C 8,4 C 0,0 km/h (0 Bft)
20.10.2019 07:14 14,2 C 8,4 C 9,5 C 12,3 C 71 % 95 % 72 % 1006,8 hPa 0,0 l/m 0,0 km/h (0 Bft) SO 135 7,6 C 8,4 C 0,0 km/h (0 Bft)
20.10.2019 07:12 14,2 C 8,5 C 9,5 C 12,3 C 71 % 95 % 72 % 1006,8 hPa 0,0 l/m 0,0 km/h (0 Bft) NO 45 7,7 C 8,5 C 0,0 km/h (0 Bft)
20.10.2019 07:10 14,2 C 8,5 C 9,6 C 12,3 C 71 % 95 % 72 % 1006,8 hPa 0,0 l/m 0,2 km/h (0 Bft) O-NO 67 7,7 C 8,5 C 0,0 km/h (0 Bft)
20.10.2019 07:08 14,2 C 8,5 C 9,6 C 12,3 C 71 % 95 % 72 % 1006,8 hPa 0,0 l/m 0,2 km/h (0 Bft) O-NO 67 7,7 C 8,5 C 0,0 km/h (0 Bft)
20.10.2019 07:06 14,2 C 8,5 C 9,6 C 12,3 C 71 % 95 % 72 % 1006,8 hPa 0,0 l/m 0,2 km/h (0 Bft) O-NO 67 7,7 C 8,5 C 0,0 km/h (0 Bft)
20.10.2019 07:04 14,1 C 8,5 C 9,6 C 12,3 C 71 % 95 % 72 % 1006,9 hPa 0,0 l/m 0,2 km/h (0 Bft) O-NO 67 7,7 C 8,5 C 0,0 km/h (0 Bft)
20.10.2019 07:02 14,1 C 8,5 C 9,6 C 12,3 C 71 % 95 % 72 % 1006,9 hPa 0,0 l/m 0,2 km/h (0 Bft) O-NO 67 7,7 C 8,5 C 0,0 km/h (0 Bft)
20.10.2019 07:00 14,1 C 8,5 C 9,5 C 12,3 C 71 % 95 % 72 % 1006,9 hPa 0,0 l/m 0,2 km/h (0 Bft) SO 135 7,7 C 8,5 C 2,9 km/h (1 Bft)
20.10.2019 06:58 14,1 C 8,5 C 9,6 C 12,3 C 71 % 95 % 72 % 1006,9 hPa 0,0 l/m 0,2 km/h (0 Bft) O 90 7,7 C 8,5 C 0,0 km/h (0 Bft)
20.10.2019 06:56 14,1 C 8,6 C 9,7 C 12,3 C 71 % 95 % 72 % 1006,9 hPa 0,0 l/m 0,0 km/h (0 Bft) O-SO 112 7,8 C 8,6 C 0,0 km/h (0 Bft)
20.10.2019 06:54 14,1 C 8,6 C 9,7 C 12,3 C 71 % 95 % 72 % 1006,9 hPa 0,0 l/m 0,0 km/h (0 Bft) S 180 7,8 C 8,6 C 0,0 km/h (0 Bft)
20.10.2019 06:52 14,1 C 8,6 C 9,7 C 12,3 C 71 % 95 % 72 % 1006,9 hPa 0,0 l/m 0,0 km/h (0 Bft) SO 135 7,8 C 8,6 C 0,0 km/h (0 Bft)
20.10.2019 06:50 14,1 C 8,6 C 9,7 C 12,3 C 71 % 95 % 72 % 1006,9 hPa 0,0 l/m 0,0 km/h (0 Bft) S-SO 157 7,8 C 8,6 C 0,0 km/h (0 Bft)
20.10.2019 06:48 14,1 C 8,6 C 9,7 C 12,3 C 71 % 95 % 72 % 1006,9 hPa 0,0 l/m 0,0 km/h (0 Bft) O 90 7,8 C 8,6 C 0,0 km/h (0 Bft)
20.10.2019 06:46 14,1 C 8,6 C 9,8 C 12,3 C 71 % 95 % 72 % 1006,9 hPa 0,0 l/m 0,0 km/h (0 Bft) NW 315 7,8 C 8,6 C 0,0 km/h (0 Bft)
20.10.2019 06:44 14,1 C 8,6 C 9,8 C 12,3 C 71 % 95 % 72 % 1007,1 hPa 0,0 l/m 0,0 km/h (0 Bft) NW 315 7,8 C 8,6 C 0,0 km/h (0 Bft)
20.10.2019 06:42 14,1 C 8,6 C 9,7 C 12,3 C 71 % 95 % 72 % 1007,1 hPa 0,0 l/m 0,0 km/h (0 Bft) NW 315 7,8 C 8,6 C 0,0 km/h (0 Bft)
20.10.2019 06:40 13,9 C 8,7 C 9,7 C 12,3 C 71 % 95 % 72 % 1007,1 hPa 0,0 l/m 0,2 km/h (0 Bft) NW 315 7,9 C 8,7 C 0,0 km/h (0 Bft)
20.10.2019 06:38 14,1 C 8,7 C 9,7 C 12,3 C 71 % 95 % 72 % 1007,1 hPa 0,0 l/m 0,2 km/h (0 Bft) S-SO 157 7,9 C 8,7 C 0,0 km/h (0 Bft)
20.10.2019 06:36 14,1 C 8,7 C 9,8 C 12,3 C 71 % 95 % 72 % 1007,1 hPa 0,0 l/m 0,2 km/h (0 Bft) O-NO 67 7,9 C 8,7 C 0,0 km/h (0 Bft)
20.10.2019 06:34 14,1 C 8,7 C 9,9 C 12,3 C 71 % 95 % 72 % 1007,1 hPa 0,0 l/m 0,2 km/h (0 Bft) O-SO 112 7,9 C 8,7 C 0,0 km/h (0 Bft)
20.10.2019 06:32 14,1 C 8,7 C 9,8 C 12,3 C 71 % 95 % 72 % 1007,1 hPa 0,0 l/m 0,2 km/h (0 Bft) O-SO 112 7,9 C 8,7 C 0,0 km/h (0 Bft)
20.10.2019 06:30 14,1 C 8,7 C 9,9 C 12,3 C 71 % 95 % 72 % 1007,1 hPa 0,0 l/m 0,2 km/h (0 Bft) S 180 7,9 C 8,7 C 2,4 km/h (1 Bft)
20.10.2019 06:28 14,2 C 8,7 C 9,9 C 12,3 C 71 % 95 % 72 % 1007,1 hPa 0,0 l/m 0,0 km/h (0 Bft) S-SO 157 7,9 C 8,7 C 0,0 km/h (0 Bft)
20.10.2019 06:26 14,2 C 8,8 C 9,9 C 12,3 C 71 % 95 % 72 % 1007,1 hPa 0,0 l/m 0,0 km/h (0 Bft) SO 135 8,0 C 8,8 C 0,0 km/h (0 Bft)
20.10.2019 06:24 14,2 C 8,8 C 9,9 C 12,3 C 71 % 95 % 72 % 1007,1 hPa 0,0 l/m 0,0 km/h (0 Bft) O-SO 112 8,0 C 8,8 C 0,0 km/h (0 Bft)
20.10.2019 06:22 14,2 C 8,8 C 9,9 C 12,3 C 71 % 95 % 72 % 1007,1 hPa 0,0 l/m 0,0 km/h (0 Bft) NW 315 8,0 C 8,8 C 0,0 km/h (0 Bft)
20.10.2019 06:20 14,2 C 8,8 C 9,9 C 12,3 C 71 % 95 % 72 % 1007,1 hPa 0,0 l/m 0,0 km/h (0 Bft) NO 45 8,0 C 8,8 C 0,0 km/h (0 Bft)
20.10.2019 06:18 14,2 C 8,8 C 10,0 C 12,3 C 71 % 95 % 72 % 1007,1 hPa 0,0 l/m 0,0 km/h (0 Bft) S-SO 157 8,0 C 8,8 C 0,0 km/h (0 Bft)
20.10.2019 06:16 14,2 C 8,8 C 10,0 C 12,3 C 71 % 95 % 72 % 1007,1 hPa 0,0 l/m 0,0 km/h (0 Bft) N-NO 22 8,0 C 8,8 C 0,0 km/h (0 Bft)
20.10.2019 06:14 14,2 C 8,8 C 10,0 C 12,3 C 71 % 95 % 72 % 1007,1 hPa 0,0 l/m 0,0 km/h (0 Bft) S 180 8,0 C 8,8 C 0,0 km/h (0 Bft)
20.10.2019 06:12 14,1 C 8,8 C 10,0 C 12,3 C 71 % 95 % 72 % 1007,1 hPa 0,0 l/m 0,0 km/h (0 Bft) S 180 8,0 C 8,8 C 0,0 km/h (0 Bft)
20.10.2019 06:10 14,1 C 8,8 C 10,0 C 12,3 C 70 % 95 % 72 % 1007,1 hPa 0,0 l/m 0,0 km/h (0 Bft) S 180 8,0 C 8,8 C 0,0 km/h (0 Bft)
20.10.2019 06:08 14,2 C 8,8 C 10,0 C 12,3 C 70 % 95 % 72 % 1007,1 hPa 0,0 l/m 0,0 km/h (0 Bft) S 180 8,0 C 8,8 C 0,0 km/h (0 Bft)
20.10.2019 06:06 14,3 C 8,8 C 10,0 C 12,3 C 70 % 95 % 72 % 1007,1 hPa 0,0 l/m 0,0 km/h (0 Bft) S 180 8,0 C 8,8 C 0,0 km/h (0 Bft)
20.10.2019 06:04 14,3 C 8,8 C 10,0 C 12,3 C 70 % 95 % 72 % 1006,9 hPa 0,0 l/m 0,0 km/h (0 Bft) S 180 8,0 C 8,8 C 0,0 km/h (0 Bft)
20.10.2019 06:02 14,3 C 8,8 C 10,0 C 12,3 C 70 % 95 % 72 % 1006,9 hPa 0,0 l/m 0,0 km/h (0 Bft) S 180 8,0 C 8,8 C 0,0 km/h (0 Bft)
20.10.2019 06:00 14,3 C 8,8 C 10,0 C 12,3 C 70 % 95 % 72 % 1006,9 hPa 0,0 l/m 0,0 km/h (0 Bft) S 180 8,0 C 8,8 C 0,0 km/h (0 Bft)
20.10.2019 05:58 14,3 C 8,8 C 10,0 C 12,3 C 70 % 95 % 72 % 1006,9 hPa 0,0 l/m 0,0 km/h (0 Bft) S 180 8,0 C 8,8 C 0,0 km/h (0 Bft)
20.10.2019 05:56 14,3 C 8,8 C 10,0 C 12,3 C 70 % 95 % 72 % 1006,9 hPa 0,0 l/m 0,0 km/h (0 Bft) NW 315 8,0 C 8,8 C 0,0 km/h (0 Bft)
20.10.2019 05:54 14,3 C 8,8 C 10,0 C 12,3 C 70 % 95 % 72 % 1006,9 hPa 0,0 l/m 0,0 km/h (0 Bft) NW 315 8,0 C 8,8 C 0,0 km/h (0 Bft)
20.10.2019 05:52 14,2 C 8,8 C 10,1 C 12,3 C 70 % 95 % 72 % 1006,9 hPa 0,0 l/m 0,0 km/h (0 Bft) NW 315 8,0 C 8,8 C 0,0 km/h (0 Bft)
20.10.2019 05:50 14,4 C 8,8 C 10,1 C 12,3 C 70 % 95 % 72 % 1006,9 hPa 0,0 l/m 0,0 km/h (0 Bft) NW 315 8,0 C 8,8 C 0,0 km/h (0 Bft)
20.10.2019 05:48 14,4 C 8,8 C 10,1 C 12,3 C 70 % 95 % 72 % 1006,9 hPa 0,0 l/m 0,0 km/h (0 Bft) W 270 8,0 C 8,8 C 0,0 km/h (0 Bft)
20.10.2019 05:46 14,4 C 8,8 C 10,1 C 12,3 C 70 % 95 % 72 % 1006,9 hPa 0,0 l/m 0,0 km/h (0 Bft) NW 315 8,0 C 8,8 C 0,0 km/h (0 Bft)
20.10.2019 05:44 14,4 C 8,8 C 10,1 C 12,3 C 70 % 95 % 72 % 1007,0 hPa 0,0 l/m 0,0 km/h (0 Bft) NW 315 8,0 C 8,8 C 0,0 km/h (0 Bft)
20.10.2019 05:42 14,4 C 8,8 C 10,1 C 12,3 C 70 % 95 % 72 % 1007,0 hPa 0,0 l/m 0,0 km/h (0 Bft) NW 315 8,0 C 8,8 C 0,0 km/h (0 Bft)
20.10.2019 05:40 14,4 C 8,8 C 10,1 C 12,3 C 70 % 95 % 72 % 1007,0 hPa 0,0 l/m 0,0 km/h (0 Bft) NW 315 8,0 C 8,8 C 0,0 km/h (0 Bft)
20.10.2019 05:38 14,3 C 8,8 C 10,1 C 12,3 C 70 % 95 % 72 % 1007,0 hPa 0,0 l/m 0,0 km/h (0 Bft) NW 315 8,0 C 8,8 C 0,0 km/h (0 Bft)
20.10.2019 05:36 14,3 C 8,8 C 10,0 C 12,3 C 70 % 95 % 72 % 1007,0 hPa 0,0 l/m 0,0 km/h (0 Bft) S-SO 157 8,0 C 8,8 C 0,0 km/h (0 Bft)
20.10.2019 05:34 14,5 C 8,8 C 10,0 C 12,3 C 70 % 95 % 72 % 1007,0 hPa 0,0 l/m 0,0 km/h (0 Bft) S 180 8,0 C 8,8 C 0,0 km/h (0 Bft)
20.10.2019 05:32 14,5 C 8,8 C 10,0 C 12,3 C 70 % 95 % 72 % 1007,0 hPa 0,0 l/m 0,0 km/h (0 Bft) S 180 8,0 C 8,8 C 0,0 km/h (0 Bft)
20.10.2019 05:30 14,5 C 8,8 C 10,0 C 12,3 C 70 % 95 % 72 % 1007,0 hPa 0,0 l/m 0,0 km/h (0 Bft) S 180 8,0 C 8,8 C 0,0 km/h (0 Bft)
20.10.2019 05:28 14,4 C 8,8 C 10,0 C 12,3 C 70 % 95 % 72 % 1007,0 hPa 0,0 l/m 0,0 km/h (0 Bft) W 270 8,0 C 8,8 C 0,0 km/h (0 Bft)
20.10.2019 05:26 14,4 C 8,8 C 10,0 C 12,3 C 70 % 95 % 72 % 1007,0 hPa 0,0 l/m 0,0 km/h (0 Bft) W 270 8,0 C 8,8 C 0,0 km/h (0 Bft)
20.10.2019 05:24 14,4 C 8,8 C 10,0 C 12,3 C 70 % 95 % 72 % 1006,9 hPa 0,0 l/m 0,0 km/h (0 Bft) W 270 8,0 C 8,8 C 0,0 km/h (0 Bft)
20.10.2019 05:22 14,4 C 8,8 C 10,0 C 12,3 C 70 % 95 % 72 % 1006,9 hPa 0,0 l/m 0,0 km/h (0 Bft) W 270 8,0 C 8,8 C 0,0 km/h (0 Bft)
20.10.2019 05:20 14,6 C 8,8 C 10,0 C 12,3 C 70 % 95 % 72 % 1006,9 hPa 0,0 l/m 0,0 km/h (0 Bft) W 270 8,0 C 8,8 C 0,0 km/h (0 Bft)
20.10.2019 05:18 14,6 C 8,8 C 10,0 C 12,3 C 70 % 95 % 72 % 1006,9 hPa 0,0 l/m 0,0 km/h (0 Bft) W 270 8,0 C 8,8 C 0,0 km/h (0 Bft)
20.10.2019 05:16 14,6 C 8,8 C 10,0 C 12,3 C 70 % 95 % 72 % 1006,9 hPa 0,0 l/m 0,0 km/h (0 Bft) NW 315 8,0 C 8,8 C 0,0 km/h (0 Bft)
20.10.2019 05:14 14,6 C 8,8 C 10,0 C 12,3 C 70 % 95 % 72 % 1006,9 hPa 0,0 l/m 0,2 km/h (0 Bft) W-NW 292 8,0 C 8,8 C 0,0 km/h (0 Bft)
20.10.2019 05:12 14,6 C 8,8 C 10,0 C 12,3 C 70 % 95 % 72 % 1006,9 hPa 0,0 l/m 0,2 km/h (0 Bft) NW 315 8,0 C 8,8 C 0,0 km/h (0 Bft)
20.10.2019 05:10 14,6 C 8,8 C 10,0 C 12,3 C 70 % 95 % 72 % 1006,9 hPa 0,0 l/m 0,3 km/h (0 Bft) NW 315 8,0 C 8,8 C 0,0 km/h (0 Bft)
20.10.2019 05:08 14,6 C 8,8 C 10,1 C 12,3 C 70 % 95 % 72 % 1006,9 hPa 0,0 l/m 0,3 km/h (0 Bft) NW 315 8,0 C 8,8 C 0,0 km/h (0 Bft)
20.10.2019 05:06 14,6 C 8,8 C 10,1 C 12,3 C 70 % 95 % 72 % 1006,9 hPa 0,0 l/m 0,3 km/h (0 Bft) NW 315 8,0 C 8,8 C 0,0 km/h (0 Bft)
20.10.2019 05:04 14,6 C 8,8 C 10,0 C 12,3 C 70 % 95 % 72 % 1007,0 hPa 0,0 l/m 0,2 km/h (0 Bft) NW 315 8,0 C 8,8 C 4,6 km/h (1 Bft)
20.10.2019 05:02 14,6 C 8,9 C 10,1 C 12,3 C 70 % 95 % 72 % 1007,0 hPa 0,0 l/m 0,2 km/h (0 Bft) W 270 8,1 C 8,9 C 0,0 km/h (0 Bft)
20.10.2019 05:00 14,6 C 8,9 C 10,1 C 12,3 C 70 % 95 % 72 % 1007,0 hPa 0,0 l/m 0,2 km/h (0 Bft) NW 315 8,1 C 8,9 C 3,6 km/h (1 Bft)
20.10.2019 04:58 14,6 C 8,9 C 10,2 C 12,3 C 70 % 95 % 72 % 1007,0 hPa 0,0 l/m 0,0 km/h (0 Bft) NW 315 8,1 C 8,9 C 0,0 km/h (0 Bft)
20.10.2019 04:56 14,6 C 8,9 C 10,2 C 12,3 C 70 % 95 % 72 % 1007,0 hPa 0,0 l/m 0,0 km/h (0 Bft) NW 315 8,1 C 8,9 C 0,0 km/h (0 Bft)
20.10.2019 04:54 14,6 C 8,9 C 10,1 C 12,3 C 70 % 95 % 72 % 1007,0 hPa 0,0 l/m 0,0 km/h (0 Bft) NW 315 8,1 C 8,9 C 0,0 km/h (0 Bft)
20.10.2019 04:52 14,6 C 8,9 C 10,1 C 12,3 C 70 % 95 % 72 % 1007,0 hPa 0,0 l/m 0,0 km/h (0 Bft) NW 315 8,1 C 8,9 C 0,0 km/h (0 Bft)
20.10.2019 04:50 14,7 C 8,9 C 10,1 C 12,3 C 70 % 95 % 72 % 1007,0 hPa 0,0 l/m 0,3 km/h (0 Bft) NW 315 8,1 C 8,9 C 0,0 km/h (0 Bft)
20.10.2019 04:48 14,7 C 8,9 C 10,1 C 12,3 C 70 % 95 % 72 % 1007,0 hPa 0,0 l/m 0,3 km/h (0 Bft) NW 315 8,1 C 8,9 C 0,0 km/h (0 Bft)
20.10.2019 04:46 14,7 C 8,9 C 10,1 C 12,3 C 70 % 95 % 72 % 1007,0 hPa 0,0 l/m 0,5 km/h (0 Bft) W 270 8,1 C 8,9 C 0,0 km/h (0 Bft)
20.10.2019 04:44 14,7 C 8,9 C 10,1 C 12,3 C 70 % 95 % 72 % 1006,9 hPa 0,0 l/m 0,5 km/h (0 Bft) W-NW 292 8,1 C 8,9 C 3,9 km/h (1 Bft)
20.10.2019 04:42 14,7 C 8,9 C 10,2 C 12,3 C 70 % 95 % 72 % 1006,9 hPa 0,0 l/m 0,5 km/h (0 Bft) W-SW 247 8,1 C 8,9 C 0,0 km/h (0 Bft)
20.10.2019 04:40 14,7 C 8,9 C 10,1 C 12,3 C 70 % 95 % 72 % 1006,9 hPa 0,0 l/m 0,5 km/h (0 Bft) W-NW 292 8,1 C 8,9 C 3,1 km/h (1 Bft)
20.10.2019 04:38 14,7 C 8,9 C 10,1 C 12,3 C 70 % 95 % 72 % 1006,9 hPa 0,0 l/m 0,3 km/h (0 Bft) NW 315 8,1 C 8,9 C 0,0 km/h (0 Bft)
20.10.2019 04:36 14,7 C 8,9 C 10,1 C 12,3 C 70 % 95 % 72 % 1006,9 hPa 0,0 l/m 0,2 km/h (0 Bft) W-NW 292 8,1 C 8,9 C 3,9 km/h (1 Bft)
20.10.2019 04:34 14,6 C 8,9 C 10,1 C 12,3 C 70 % 95 % 72 % 1006,9 hPa 0,0 l/m 0,0 km/h (0 Bft) NW 315 8,1 C 8,9 C 0,0 km/h (0 Bft)
20.10.2019 04:32 14,6 C 8,9 C 10,1 C 12,3 C 70 % 95 % 72 % 1006,9 hPa 0,0 l/m 0,0 km/h (0 Bft) NW 315 8,1 C 8,9 C 0,0 km/h (0 Bft)
20.10.2019 04:30 14,6 C 8,9 C 10,1 C 12,3 C 70 % 95 % 72 % 1006,9 hPa 0,0 l/m 0,0 km/h (0 Bft) O-NO 67 8,1 C 8,9 C 0,0 km/h (0 Bft)
20.10.2019 04:28 14,8 C 8,9 C 10,1 C 12,3 C 70 % 95 % 72 % 1006,9 hPa 0,0 l/m 0,0 km/h (0 Bft) O-NO 67 8,1 C 8,9 C 0,0 km/h (0 Bft)
20.10.2019 04:26 14,8 C 8,9 C 10,0 C 12,3 C 70 % 95 % 72 % 1006,9 hPa 0,0 l/m 0,0 km/h (0 Bft) O-NO 67 8,1 C 8,9 C 0,0 km/h (0 Bft)
20.10.2019 04:24 14,6 C 9,0 C 10,1 C 12,3 C 70 % 95 % 72 % 1006,9 hPa 0,0 l/m 0,0 km/h (0 Bft) O-SO 112 8,2 C 9,0 C 0,0 km/h (0 Bft)
20.10.2019 04:22 14,8 C 9,0 C 10,1 C 12,3 C 70 % 95 % 72 % 1006,9 hPa 0,0 l/m 0,0 km/h (0 Bft) S 180 8,2 C 9,0 C 0,0 km/h (0 Bft)
20.10.2019 04:20 14,6 C 9,0 C 10,2 C 12,3 C 70 % 95 % 72 % 1006,9 hPa 0,0 l/m 0,0 km/h (0 Bft) N 360 8,2 C 9,0 C 0,0 km/h (0 Bft)
20.10.2019 04:18 14,8 C 9,0 C 10,3 C 12,3 C 70 % 95 % 72 % 1006,9 hPa 0,0 l/m 0,0 km/h (0 Bft) NW 315 8,2 C 9,0 C 0,0 km/h (0 Bft)
20.10.2019 04:16 14,8 C 9,0 C 10,3 C 12,3 C 70 % 95 % 72 % 1006,9 hPa 0,0 l/m 0,0 km/h (0 Bft) NW 315 8,2 C 9,0 C 0,0 km/h (0 Bft)
20.10.2019 04:14 14,8 C 9,0 C 10,2 C 12,3 C 70 % 95 % 72 % 1006,9 hPa 0,0 l/m 0,0 km/h (0 Bft) NW 315 8,2 C 9,0 C 0,0 km/h (0 Bft)
20.10.2019 04:12 14,8 C 9,0 C 10,2 C 12,3 C 70 % 94 % 72 % 1006,9 hPa 0,0 l/m 0,0 km/h (0 Bft) N-NW 337 8,1 C 9,0 C 0,0 km/h (0 Bft)
20.10.2019 04:10 14,8 C 9,0 C 10,1 C 12,3 C 70 % 94 % 72 % 1006,9 hPa 0,0 l/m 0,0 km/h (0 Bft) W 270 8,1 C 9,0 C 0,0 km/h (0 Bft)
20.10.2019 04:08 14,8 C 9,0 C 10,1 C 12,3 C 70 % 94 % 72 % 1006,9 hPa 0,0 l/m 0,0 km/h (0 Bft) W 270 8,1 C 9,0 C 0,0 km/h (0 Bft)
20.10.2019 04:06 14,8 C 9,0 C 10,2 C 12,3 C 70 % 94 % 72 % 1006,9 hPa 0,0 l/m 0,0 km/h (0 Bft) W 270 8,1 C 9,0 C 0,0 km/h (0 Bft)
20.10.2019 04:04 14,8 C 9,2 C 10,2 C 12,3 C 70 % 94 % 72 % 1007,0 hPa 0,0 l/m 0,0 km/h (0 Bft) W 270 8,3 C 9,2 C 0,0 km/h (0 Bft)
20.10.2019 04:02 14,8 C 9,2 C 10,3 C 12,3 C 70 % 94 % 72 % 1007,0 hPa 0,0 l/m 0,0 km/h (0 Bft) W 270 8,3 C 9,2 C 0,0 km/h (0 Bft)
20.10.2019 04:00 14,8 C 9,2 C 10,3 C 12,3 C 70 % 94 % 72 % 1007,0 hPa 0,0 l/m 0,0 km/h (0 Bft) W 270 8,3 C 9,2 C 0,0 km/h (0 Bft)
20.10.2019 03:58 14,8 C 9,2 C 10,3 C 12,3 C 70 % 94 % 72 % 1007,0 hPa 0,0 l/m 0,0 km/h (0 Bft) N-NW 337 8,3 C 9,2 C 0,0 km/h (0 Bft)
20.10.2019 03:56 14,8 C 9,2 C 10,3 C 12,3 C 70 % 94 % 72 % 1007,0 hPa 0,0 l/m 0,0 km/h (0 Bft) NW 315 8,3 C 9,2 C 0,0 km/h (0 Bft)
20.10.2019 03:54 14,8 C 9,2 C 10,3 C 12,3 C 70 % 94 % 72 % 1007,0 hPa 0,0 l/m 0,0 km/h (0 Bft) NW 315 8,3 C 9,2 C 0,0 km/h (0 Bft)
20.10.2019 03:52 14,8 C 9,2 C 10,2 C 12,3 C 70 % 94 % 72 % 1007,0 hPa 0,0 l/m 0,0 km/h (0 Bft) NW 315 8,3 C 9,2 C 0,0 km/h (0 Bft)
20.10.2019 03:50 14,9 C 9,2 C 10,3 C 12,3 C 70 % 94 % 72 % 1007,0 hPa 0,0 l/m 0,0 km/h (0 Bft) NW 315 8,3 C 9,2 C 0,0 km/h (0 Bft)
20.10.2019 03:48 14,9 C 9,2 C 10,3 C 12,3 C 69 % 94 % 72 % 1007,0 hPa 0,0 l/m 0,0 km/h (0 Bft) N-NO 22 8,3 C 9,2 C 0,0 km/h (0 Bft)
20.10.2019 03:46 14,9 C 9,2 C 10,3 C 12,3 C 70 % 94 % 72 % 1007,0 hPa 0,0 l/m 0,0 km/h (0 Bft) N-NO 22 8,3 C 9,2 C 0,0 km/h (0 Bft)
20.10.2019 03:44 14,8 C 9,2 C 10,3 C 12,3 C 70 % 94 % 72 % 1007,2 hPa 0,0 l/m 0,0 km/h (0 Bft) NW 315 8,3 C 9,2 C 0,0 km/h (0 Bft)
20.10.2019 03:42 14,8 C 9,2 C 10,3 C 12,3 C 70 % 94 % 72 % 1007,2 hPa 0,0 l/m 0,0 km/h (0 Bft) NW 315 8,3 C 9,2 C 0,0 km/h (0 Bft)
20.10.2019 03:40 14,8 C 9,2 C 10,2 C 12,3 C 70 % 94 % 72 % 1007,2 hPa 0,0 l/m 0,2 km/h (0 Bft) NW 315 8,3 C 9,2 C 0,0 km/h (0 Bft)
20.10.2019 03:38 15,0 C 9,2 C 10,2 C 12,3 C 70 % 94 % 72 % 1007,2 hPa 0,0 l/m 0,2 km/h (0 Bft) NW 315 8,3 C 9,2 C 0,0 km/h (0 Bft)
20.10.2019 03:36 15,0 C 9,3 C 10,2 C 12,3 C 70 % 94 % 72 % 1007,2 hPa 0,0 l/m 0,2 km/h (0 Bft) NW 315 8,4 C 9,3 C 0,0 km/h (0 Bft)
20.10.2019 03:34 15,0 C 9,3 C 10,3 C 12,3 C 69 % 94 % 72 % 1007,2 hPa 0,0 l/m 0,2 km/h (0 Bft) NW 315 8,4 C 9,3 C 3,6 km/h (1 Bft)
20.10.2019 03:32 15,0 C 9,3 C 10,3 C 12,3 C 70 % 94 % 72 % 1007,2 hPa 0,0 l/m 0,2 km/h (0 Bft) W 270 8,4 C 9,3 C 0,0 km/h (0 Bft)
20.10.2019 03:30 15,0 C 9,3 C 10,3 C 12,3 C 70 % 94 % 72 % 1007,2 hPa 0,0 l/m 0,0 km/h (0 Bft) W-NW 292 8,4 C 9,3 C 0,0 km/h (0 Bft)
20.10.2019 03:28 15,0 C 9,3 C 10,3 C 12,3 C 70 % 94 % 72 % 1007,2 hPa 0,0 l/m 0,0 km/h (0 Bft) W-NW 292 8,4 C 9,3 C 0,0 km/h (0 Bft)
20.10.2019 03:26 15,0 C 9,3 C 10,4 C 12,3 C 70 % 94 % 72 % 1007,2 hPa 0,0 l/m 0,0 km/h (0 Bft) SW 225 8,4 C 9,3 C 0,0 km/h (0 Bft)
20.10.2019 03:24 15,0 C 9,3 C 10,4 C 12,3 C 69 % 94 % 72 % 1007,0 hPa 0,0 l/m 0,0 km/h (0 Bft) NW 315 8,4 C 9,3 C 0,0 km/h (0 Bft)
20.10.2019 03:22 15,0 C 9,3 C 10,4 C 12,3 C 70 % 94 % 72 % 1007,0 hPa 0,0 l/m 0,0 km/h (0 Bft) NW 315 8,4 C 9,3 C 0,0 km/h (0 Bft)
20.10.2019 03:20 15,0 C 9,3 C 10,4 C 12,3 C 70 % 94 % 72 % 1007,0 hPa 0,0 l/m 0,0 km/h (0 Bft) S-SO 157 8,4 C 9,3 C 0,0 km/h (0 Bft)
20.10.2019 03:18 14,9 C 9,3 C 10,4 C 12,3 C 69 % 94 % 72 % 1007,0 hPa 0,0 l/m 0,0 km/h (0 Bft) W-SW 247 8,4 C 9,3 C 0,0 km/h (0 Bft)
20.10.2019 03:16 15,1 C 9,4 C 10,4 C 12,3 C 69 % 94 % 72 % 1007,0 hPa 0,0 l/m 0,0 km/h (0 Bft) W 270 8,5 C 9,4 C 0,0 km/h (0 Bft)
20.10.2019 03:14 15,1 C 9,4 C 10,5 C 12,3 C 69 % 94 % 72 % 1007,0 hPa 0,0 l/m 0,0 km/h (0 Bft) N-NW 337 8,5 C 9,4 C 0,0 km/h (0 Bft)
20.10.2019 03:12 15,1 C 9,4 C 10,5 C 12,3 C 69 % 94 % 72 % 1007,0 hPa 0,0 l/m 0,0 km/h (0 Bft) N-NW 337 8,5 C 9,4 C 0,0 km/h (0 Bft)
20.10.2019 03:10 15,1 C 9,4 C 10,5 C 12,3 C 69 % 94 % 72 % 1007,0 hPa 0,0 l/m 0,0 km/h (0 Bft) N-NW 337 8,5 C 9,4 C 0,0 km/h (0 Bft)
20.10.2019 03:08 15,1 C 9,4 C 10,5 C 12,3 C 69 % 94 % 72 % 1007,0 hPa 0,0 l/m 0,0 km/h (0 Bft) N-NW 337 8,5 C 9,4 C 0,0 km/h (0 Bft)
20.10.2019 03:06 15,2 C 9,4 C 10,5 C 12,3 C 69 % 94 % 72 % 1007,0 hPa 0,0 l/m 0,0 km/h (0 Bft) N-NW 337 8,5 C 9,4 C 0,0 km/h (0 Bft)
20.10.2019 03:04 15,2 C 9,4 C 10,5 C 12,3 C 69 % 94 % 72 % 1007,2 hPa 0,0 l/m 0,0 km/h (0 Bft) NW 315 8,5 C 9,4 C 0,0 km/h (0 Bft)
20.10.2019 03:02 15,2 C 9,4 C 10,5 C 12,3 C 69 % 94 % 72 % 1007,2 hPa 0,0 l/m 0,0 km/h (0 Bft) W-NW 292 8,5 C 9,4 C 0,0 km/h (0 Bft)
20.10.2019 03:00 15,2 C 9,4 C 10,6 C 12,3 C 69 % 94 % 72 % 1007,2 hPa 0,0 l/m 0,0 km/h (0 Bft) W-NW 292 8,5 C 9,4 C 0,0 km/h (0 Bft)
20.10.2019 02:58 15,2 C 9,4 C 10,5 C 12,3 C 69 % 94 % 72 % 1007,2 hPa 0,0 l/m 0,0 km/h (0 Bft) W-SW 247 8,5 C 9,4 C 0,0 km/h (0 Bft)
20.10.2019 02:56 15,1 C 9,4 C 10,5 C 12,3 C 69 % 94 % 72 % 1007,2 hPa 0,0 l/m 0,0 km/h (0 Bft) W-SW 247 8,5 C 9,4 C 0,0 km/h (0 Bft)
20.10.2019 02:54 15,2 C 9,4 C 10,4 C 12,3 C 69 % 94 % 72 % 1007,2 hPa 0,0 l/m 0,0 km/h (0 Bft) W-SW 247 8,5 C 9,4 C 0,0 km/h (0 Bft)
20.10.2019 02:52 15,1 C 9,4 C 10,5 C 12,3 C 69 % 94 % 72 % 1007,2 hPa 0,0 l/m 0,0 km/h (0 Bft) W-SW 247 8,5 C 9,4 C 0,0 km/h (0 Bft)
20.10.2019 02:50 15,1 C 9,4 C 10,5 C 12,3 C 69 % 94 % 72 % 1007,2 hPa 0,0 l/m 0,2 km/h (0 Bft) W-SW 247 8,5 C 9,4 C 0,0 km/h (0 Bft)
20.10.2019 02:48 15,1 C 9,4 C 10,5 C 12,3 C 69 % 94 % 72 % 1007,2 hPa 0,0 l/m 0,2 km/h (0 Bft) W-SW 247 8,5 C 9,4 C 0,0 km/h (0 Bft)
20.10.2019 02:46 15,1 C 9,4 C 10,5 C 12,3 C 69 % 94 % 72 % 1007,2 hPa 0,0 l/m 0,2 km/h (0 Bft) NW 315 8,5 C 9,4 C 0,0 km/h (0 Bft)
20.10.2019 02:44 15,1 C 9,4 C 10,5 C 12,3 C 69 % 94 % 72 % 1006,9 hPa 0,0 l/m 0,2 km/h (0 Bft) W 270 8,5 C 9,4 C 0,0 km/h (0 Bft)
20.10.2019 02:42 15,1 C 9,4 C 10,5 C 12,3 C 69 % 94 % 72 % 1006,9 hPa 0,0 l/m 0,0 km/h (0 Bft) NW 315 8,5 C 9,4 C 0,0 km/h (0 Bft)
20.10.2019 02:40 15,3 C 9,4 C 10,5 C 12,3 C 69 % 94 % 72 % 1006,9 hPa 0,0 l/m 0,0 km/h (0 Bft) NW 315 8,5 C 9,4 C 0,0 km/h (0 Bft)
20.10.2019 02:38 15,3 C 9,4 C 10,5 C 12,3 C 69 % 94 % 72 % 1006,9 hPa 0,0 l/m 0,0 km/h (0 Bft) N-NW 337 8,5 C 9,4 C 0,0 km/h (0 Bft)
20.10.2019 02:36 15,3 C 9,4 C 10,5 C 12,3 C 69 % 94 % 72 % 1006,9 hPa 0,0 l/m 0,0 km/h (0 Bft) N-NW 337 8,5 C 9,4 C 0,0 km/h (0 Bft)
20.10.2019 02:34 15,2 C 9,4 C 10,5 C 12,3 C 69 % 94 % 72 % 1006,9 hPa 0,0 l/m 0,0 km/h (0 Bft) N-NO 22 8,5 C 9,4 C 0,0 km/h (0 Bft)
20.10.2019 02:32 15,2 C 9,4 C 10,5 C 12,3 C 69 % 94 % 72 % 1006,9 hPa 0,0 l/m 0,0 km/h (0 Bft) NO 45 8,5 C 9,4 C 0,0 km/h (0 Bft)
20.10.2019 02:30 15,3 C 9,4 C 10,5 C 12,3 C 69 % 94 % 72 % 1006,9 hPa 0,0 l/m 0,0 km/h (0 Bft) N-NW 337 8,5 C 9,4 C 0,0 km/h (0 Bft)
20.10.2019 02:28 15,2 C 9,4 C 10,5 C 12,3 C 69 % 94 % 72 % 1006,9 hPa 0,0 l/m 0,0 km/h (0 Bft) NO 45 8,5 C 9,4 C 0,0 km/h (0 Bft)
20.10.2019 02:26 15,2 C 9,4 C 10,5 C 12,3 C 69 % 94 % 72 % 1006,9 hPa 0,0 l/m 0,0 km/h (0 Bft) O 90 8,5 C 9,4 C 0,0 km/h (0 Bft)
20.10.2019 02:24 15,4 C 9,4 C 10,5 C 12,3 C 69 % 94 % 72 % 1007,3 hPa 0,0 l/m 0,0 km/h (0 Bft) N-NW 337 8,5 C 9,4 C 0,0 km/h (0 Bft)
20.10.2019 02:22 15,4 C 9,4 C 10,5 C 12,3 C 69 % 94 % 72 % 1007,3 hPa 0,0 l/m 0,0 km/h (0 Bft) NW 315 8,5 C 9,4 C 0,0 km/h (0 Bft)
20.10.2019 02:20 15,2 C 9,4 C 10,5 C 12,3 C 69 % 94 % 72 % 1007,3 hPa 0,0 l/m 0,0 km/h (0 Bft) NW 315 8,5 C 9,4 C 0,0 km/h (0 Bft)
20.10.2019 02:18 15,4 C 9,4 C 10,5 C 12,3 C 69 % 94 % 72 % 1007,3 hPa 0,0 l/m 0,0 km/h (0 Bft) NW 315 8,5 C 9,4 C 0,0 km/h (0 Bft)
20.10.2019 02:16 15,4 C 9,4 C 10,5 C 12,3 C 69 % 94 % 72 % 1007,3 hPa 0,0 l/m 0,0 km/h (0 Bft) NW 315 8,5 C 9,4 C 0,0 km/h (0 Bft)
20.10.2019 02:14 15,4 C 9,4 C 10,5 C 12,3 C 69 % 94 % 72 % 1007,3 hPa 0,0 l/m 0,0 km/h (0 Bft) NW 315 8,5 C 9,4 C 0,0 km/h (0 Bft)
20.10.2019 02:12 15,4 C 9,4 C 10,5 C 12,3 C 69 % 94 % 72 % 1007,3 hPa 0,0 l/m 0,0 km/h (0 Bft) NW 315 8,5 C 9,4 C 0,0 km/h (0 Bft)
20.10.2019 02:10 15,4 C 9,4 C 10,5 C 12,3 C 69 % 94 % 72 % 1007,3 hPa 0,0 l/m 0,0 km/h (0 Bft) N-NO 22 8,5 C 9,4 C 0,0 km/h (0 Bft)
20.10.2019 02:08 15,4 C 9,4 C 10,4 C 12,3 C 69 % 94 % 72 % 1007,3 hPa 0,0 l/m 0,0 km/h (0 Bft) N-NW 337 8,5 C 9,4 C 0,0 km/h (0 Bft)
20.10.2019 02:06 15,4 C 9,4 C 10,4 C 12,3 C 69 % 94 % 72 % 1007,3 hPa 0,0 l/m 0,0 km/h (0 Bft) N-NW 337 8,5 C 9,4 C 0,0 km/h (0 Bft)
20.10.2019 02:04 15,3 C 9,4 C 10,5 C 12,3 C 69 % 94 % 72 % 1007,6 hPa 0,0 l/m 0,0 km/h (0 Bft) NW 315 8,5 C 9,4 C 0,0 km/h (0 Bft)
20.10.2019 02:02 15,3 C 9,4 C 10,5 C 12,3 C 69 % 94 % 72 % 1007,6 hPa 0,0 l/m 0,0 km/h (0 Bft) NW 315 8,5 C 9,4 C 0,0 km/h (0 Bft)
20.10.2019 02:00 15,3 C 9,3 C 10,5 C 12,3 C 69 % 94 % 72 % 1007,6 hPa 0,0 l/m 0,0 km/h (0 Bft) NW 315 8,4 C 9,3 C 0,0 km/h (0 Bft)
20.10.2019 01:58 15,5 C 9,3 C 10,5 C 12,3 C 69 % 94 % 72 % 1007,6 hPa 0,0 l/m 0,0 km/h (0 Bft) NW 315 8,4 C 9,3 C 0,0 km/h (0 Bft)
20.10.2019 01:56 15,5 C 9,3 C 10,5 C 12,3 C 69 % 94 % 72 % 1007,6 hPa 0,0 l/m 0,0 km/h (0 Bft) NW 315 8,4 C 9,3 C 0,0 km/h (0 Bft)
20.10.2019 01:54 15,5 C 9,3 C 10,5 C 12,3 C 69 % 94 % 72 % 1007,6 hPa 0,0 l/m 0,0 km/h (0 Bft) NW 315 8,4 C 9,3 C 0,0 km/h (0 Bft)
20.10.2019 01:52 15,5 C 9,4 C 10,5 C 12,3 C 69 % 94 % 72 % 1007,6 hPa 0,0 l/m 0,0 km/h (0 Bft) NW 315 8,5 C 9,4 C 0,0 km/h (0 Bft)
20.10.2019 01:50 15,5 C 9,4 C 10,5 C 12,3 C 69 % 94 % 72 % 1007,6 hPa 0,0 l/m 0,0 km/h (0 Bft) NW 315 8,5 C 9,4 C 0,0 km/h (0 Bft)
20.10.2019 01:48 15,6 C 9,4 C 10,6 C 12,3 C 69 % 94 % 72 % 1007,6 hPa 0,0 l/m 0,0 km/h (0 Bft) NW 315 8,5 C 9,4 C 0,0 km/h (0 Bft)
20.10.2019 01:46 15,6 C 9,4 C 10,6 C 12,3 C 69 % 94 % 72 % 1007,6 hPa 0,0 l/m 0,0 km/h (0 Bft) SW 225 8,5 C 9,4 C 0,0 km/h (0 Bft)
20.10.2019 01:44 15,6 C 9,4 C 10,5 C 12,3 C 69 % 94 % 72 % 1007,6 hPa 0,0 l/m 0,0 km/h (0 Bft) SW 225 8,5 C 9,4 C 0,0 km/h (0 Bft)
20.10.2019 01:42 15,6 C 9,4 C 10,5 C 12,3 C 69 % 94 % 72 % 1007,6 hPa 0,0 l/m 0,0 km/h (0 Bft) SW 225 8,5 C 9,4 C 0,0 km/h (0 Bft)
20.10.2019 01:40 15,6 C 9,4 C 10,5 C 12,3 C 69 % 94 % 72 % 1007,6 hPa 0,0 l/m 0,0 km/h (0 Bft) SW 225 8,5 C 9,4 C 0,0 km/h (0 Bft)
20.10.2019 01:38 15,6 C 9,4 C 10,5 C 12,3 C 69 % 94 % 72 % 1007,6 hPa 0,0 l/m 0,0 km/h (0 Bft) SW 225 8,5 C 9,4 C 0,0 km/h (0 Bft)
20.10.2019 01:36 15,6 C 9,4 C 10,5 C 12,3 C 69 % 94 % 72 % 1007,6 hPa 0,0 l/m 0,0 km/h (0 Bft) SW 225 8,5 C 9,4 C 0,0 km/h (0 Bft)
20.10.2019 01:34 15,6 C 9,4 C 10,5 C 12,3 C 69 % 94 % 72 % 1007,6 hPa 0,0 l/m 0,0 km/h (0 Bft) SW 225 8,5 C 9,4 C 0,0 km/h (0 Bft)
20.10.2019 01:32 15,6 C 9,4 C 10,5 C 12,3 C 68 % 94 % 72 % 1007,6 hPa 0,0 l/m 0,0 km/h (0 Bft) SW 225 8,5 C 9,4 C 0,0 km/h (0 Bft)
20.10.2019 01:30 15,6 C 9,4 C 10,5 C 12,3 C 68 % 94 % 72 % 1007,6 hPa 0,0 l/m 0,0 km/h (0 Bft) SW 225 8,5 C 9,4 C 0,0 km/h (0 Bft)
20.10.2019 01:28 15,6 C 9,4 C 10,6 C 12,3 C 68 % 94 % 72 % 1007,6 hPa 0,0 l/m 0,0 km/h (0 Bft) SW 225 8,5 C 9,4 C 0,0 km/h (0 Bft)
20.10.2019 01:26 15,8 C 9,4 C 10,5 C 12,3 C 68 % 94 % 72 % 1007,6 hPa 0,0 l/m 0,0 km/h (0 Bft) SW 225 8,5 C 9,4 C 0,0 km/h (0 Bft)
20.10.2019 01:24 15,6 C 9,4 C 10,5 C 12,3 C 68 % 94 % 72 % 1007,8 hPa 0,0 l/m 0,0 km/h (0 Bft) S-SO 157 8,5 C 9,4 C 0,0 km/h (0 Bft)
20.10.2019 01:22 15,8 C 9,4 C 10,4 C 12,3 C 68 % 94 % 72 % 1007,8 hPa 0,0 l/m 0,0 km/h (0 Bft) SW 225 8,5 C 9,4 C 0,0 km/h (0 Bft)
20.10.2019 01:20 15,8 C 9,4 C 10,4 C 12,3 C 68 % 94 % 72 % 1007,8 hPa 0,0 l/m 0,0 km/h (0 Bft) SW 225 8,5 C 9,4 C 0,0 km/h (0 Bft)
20.10.2019 01:18 15,8 C 9,4 C 10,5 C 12,3 C 68 % 94 % 72 % 1007,8 hPa 0,0 l/m 0,0 km/h (0 Bft) S-SO 157 8,5 C 9,4 C 0,0 km/h (0 Bft)
20.10.2019 01:16 15,8 C 9,5 C 10,6 C 12,3 C 68 % 94 % 72 % 1007,8 hPa 0,0 l/m 0,0 km/h (0 Bft) O 90 8,6 C 9,5 C 0,0 km/h (0 Bft)
20.10.2019 01:14 15,9 C 9,5 C 10,5 C 12,3 C 68 % 94 % 72 % 1007,8 hPa 0,0 l/m 0,0 km/h (0 Bft) O 90 8,6 C 9,5 C 0,0 km/h (0 Bft)
20.10.2019 01:12 15,9 C 9,5 C 10,5 C 12,3 C 68 % 94 % 72 % 1007,8 hPa 0,0 l/m 0,0 km/h (0 Bft) O-NO 67 8,6 C 9,5 C 0,0 km/h (0 Bft)
20.10.2019 01:10 16,0 C 9,5 C 10,5 C 12,3 C 69 % 94 % 72 % 1007,8 hPa 0,0 l/m 0,0 km/h (0 Bft) NW 315 8,6 C 9,5 C 0,0 km/h (0 Bft)
20.10.2019 01:08 16,0 C 9,5 C 10,5 C 12,3 C 69 % 94 % 72 % 1007,8 hPa 0,0 l/m 0,0 km/h (0 Bft) NW 315 8,6 C 9,5 C 0,0 km/h (0 Bft)
20.10.2019 01:06 16,0 C 9,5 C 10,5 C 12,3 C 69 % 94 % 72 % 1007,8 hPa 0,0 l/m 0,0 km/h (0 Bft) NW 315 8,6 C 9,5 C 0,0 km/h (0 Bft)
20.10.2019 01:04 16,0 C 9,5 C 10,5 C 12,3 C 69 % 94 % 72 % 1008,6 hPa 0,0 l/m 0,0 km/h (0 Bft) NW 315 8,6 C 9,5 C 0,0 km/h (0 Bft)
20.10.2019 01:02 15,9 C 9,5 C 10,5 C 12,3 C 69 % 94 % 72 % 1008,6 hPa 0,0 l/m 0,0 km/h (0 Bft) NW 315 8,6 C 9,5 C 0,0 km/h (0 Bft)
20.10.2019 01:00 15,9 C 9,5 C 10,6 C 12,3 C 69 % 94 % 72 % 1008,6 hPa 0,0 l/m 0,0 km/h (0 Bft) NW 315 8,6 C 9,5 C 0,0 km/h (0 Bft)
20.10.2019 00:58 15,9 C 9,5 C 10,6 C 12,3 C 69 % 94 % 72 % 1008,6 hPa 0,0 l/m 0,0 km/h (0 Bft) NW 315 8,6 C 9,5 C 0,0 km/h (0 Bft)
20.10.2019 00:56 16,1 C 9,5 C 10,6 C 12,3 C 69 % 94 % 72 % 1008,6 hPa 0,0 l/m 0,0 km/h (0 Bft) N-NO 22 8,6 C 9,5 C 0,0 km/h (0 Bft)
20.10.2019 00:54 16,1 C 9,6 C 10,6 C 12,3 C 69 % 94 % 72 % 1008,6 hPa 0,0 l/m 0,0 km/h (0 Bft) N-NO 22 8,7 C 9,6 C 0,0 km/h (0 Bft)
20.10.2019 00:52 16,1 C 9,6 C 10,6 C 12,3 C 69 % 94 % 72 % 1008,6 hPa 0,0 l/m 0,0 km/h (0 Bft) N-NW 337 8,7 C 9,6 C 0,0 km/h (0 Bft)
20.10.2019 00:50 16,2 C 9,6 C 10,6 C 12,3 C 69 % 94 % 72 % 1008,6 hPa 0,0 l/m 0,0 km/h (0 Bft) NW 315 8,7 C 9,6 C 0,0 km/h (0 Bft)
20.10.2019 00:48 16,2 C 9,6 C 10,6 C 12,3 C 69 % 94 % 72 % 1008,6 hPa 0,0 l/m 0,0 km/h (0 Bft) O-SO 112 8,7 C 9,6 C 0,0 km/h (0 Bft)
20.10.2019 00:46 16,2 C 9,5 C 10,6 C 12,3 C 69 % 94 % 72 % 1008,6 hPa 0,0 l/m 0,0 km/h (0 Bft) O-NO 67 8,6 C 9,5 C 0,0 km/h (0 Bft)
20.10.2019 00:44 16,3 C 9,5 C 10,6 C 12,3 C 69 % 94 % 72 % 1008,3 hPa 0,0 l/m 0,0 km/h (0 Bft) O-NO 67 8,6 C 9,5 C 0,0 km/h (0 Bft)
20.10.2019 00:42 16,3 C 9,5 C 10,7 C 12,3 C 69 % 94 % 72 % 1008,3 hPa 0,0 l/m 0,0 km/h (0 Bft) O-SO 112 8,6 C 9,5 C 0,0 km/h (0 Bft)
20.10.2019 00:40 16,2 C 9,5 C 10,6 C 12,3 C 69 % 94 % 72 % 1008,3 hPa 0,0 l/m 0,0 km/h (0 Bft) W 270 8,6 C 9,5 C 0,0 km/h (0 Bft)
20.10.2019 00:38 16,4 C 9,5 C 10,6 C 12,3 C 69 % 94 % 72 % 1008,3 hPa 0,0 l/m 0,0 km/h (0 Bft) W 270 8,6 C 9,5 C 0,0 km/h (0 Bft)
20.10.2019 00:36 16,4 C 9,5 C 10,6 C 12,3 C 69 % 94 % 72 % 1008,3 hPa 0,0 l/m 0,0 km/h (0 Bft) O-NO 67 8,6 C 9,5 C 0,0 km/h (0 Bft)
20.10.2019 00:34 16,4 C 9,6 C 10,6 C 12,3 C 69 % 94 % 72 % 1008,3 hPa 0,0 l/m 0,0 km/h (0 Bft) NO 45 8,7 C 9,6 C 0,0 km/h (0 Bft)
20.10.2019 00:32 16,4 C 9,6 C 10,6 C 12,3 C 69 % 94 % 72 % 1008,3 hPa 0,0 l/m 0,0 km/h (0 Bft) NO 45 8,7 C 9,6 C 0,0 km/h (0 Bft)
20.10.2019 00:30 16,5 C 9,6 C 10,5 C 12,3 C 70 % 94 % 72 % 1008,3 hPa 0,0 l/m 0,0 km/h (0 Bft) NO 45 8,7 C 9,6 C 0,0 km/h (0 Bft)
20.10.2019 00:28 16,5 C 9,6 C 10,5 C 12,3 C 70 % 94 % 72 % 1008,3 hPa 0,0 l/m 0,0 km/h (0 Bft) O-NO 67 8,7 C 9,6 C 0,0 km/h (0 Bft)
20.10.2019 00:26 16,5 C 9,6 C 10,6 C 12,3 C 71 % 94 % 72 % 1008,3 hPa 0,0 l/m 0,0 km/h (0 Bft) SO 135 8,7 C 9,6 C 0,0 km/h (0 Bft)
20.10.2019 00:24 16,5 C 9,6 C 10,6 C 12,3 C 71 % 94 % 72 % 1008,4 hPa 0,0 l/m 0,2 km/h (0 Bft) N-NO 22 8,7 C 9,6 C 0,0 km/h (0 Bft)
20.10.2019 00:22 16,5 C 9,6 C 10,6 C 12,3 C 71 % 94 % 72 % 1008,4 hPa 0,0 l/m 0,2 km/h (0 Bft) N-NO 22 8,7 C 9,6 C 0,0 km/h (0 Bft)
20.10.2019 00:20 16,5 C 9,6 C 10,7 C 12,3 C 71 % 94 % 72 % 1008,4 hPa 0,0 l/m 0,2 km/h (0 Bft) N-NO 22 8,7 C 9,6 C 0,0 km/h (0 Bft)
20.10.2019 00:18 16,5 C 9,7 C 10,6 C 12,3 C 71 % 94 % 72 % 1008,4 hPa 0,0 l/m 0,2 km/h (0 Bft) S 180 8,8 C 9,7 C 0,0 km/h (0 Bft)
20.10.2019 00:16 16,5 C 9,7 C 10,6 C 12,3 C 71 % 94 % 72 % 1008,4 hPa 0,0 l/m 0,2 km/h (0 Bft) O-NO 67 8,8 C 9,7 C 0,0 km/h (0 Bft)
20.10.2019 00:14 16,5 C 9,8 C 10,9 C 12,3 C 71 % 94 % 72 % 1008,4 hPa 0,0 l/m 0,0 km/h (0 Bft) O-NO 67 8,9 C 9,8 C 0,0 km/h (0 Bft)
20.10.2019 00:12 16,5 C 9,8 C 10,9 C 12,3 C 71 % 94 % 72 % 1008,4 hPa 0,0 l/m 0,0 km/h (0 Bft) O-NO 67 8,9 C 9,8 C 0,0 km/h (0 Bft)
20.10.2019 00:10 16,5 C 9,8 C 10,9 C 12,3 C 71 % 94 % 72 % 1008,4 hPa 0,0 l/m 0,0 km/h (0 Bft) O-NO 67 8,9 C 9,8 C 0,0 km/h (0 Bft)
20.10.2019 00:08 16,5 C 9,8 C 10,9 C 12,3 C 71 % 94 % 72 % 1008,4 hPa 0,0 l/m 0,0 km/h (0 Bft) O-NO 67 8,9 C 9,8 C 0,0 km/h (0 Bft)
20.10.2019 00:06 16,5 C 9,8 C 10,9 C 12,3 C 71 % 94 % 72 % 1008,4 hPa 0,0 l/m 0,0 km/h (0 Bft) O-NO 67 8,9 C 9,8 C 0,0 km/h (0 Bft)
20.10.2019 00:04 16,5 C 9,8 C 10,9 C 12,3 C 71 % 94 % 72 % 1008,6 hPa 0,0 l/m 0,0 km/h (0 Bft) O-NO 67 8,9 C 9,8 C 0,0 km/h (0 Bft)
20.10.2019 00:02 16,5 C 9,8 C 10,9 C 12,3 C 71 % 94 % 72 % 1008,6 hPa 0,0 l/m 0,0 km/h (0 Bft) SO 135 8,9 C 9,8 C 0,0 km/h (0 Bft)
20.10.2019 00:00 16,5 C 9,8 C 10,8 C 12,3 C 71 % 94 % 72 % 1008,6 hPa 0,0 l/m 0,0 km/h (0 Bft) O-NO 67 8,9 C 9,8 C 0,0 km/h (0 Bft)
_ Min-Zeit 06:40 07:42 07:18 00:00 01:12 13:16 18:38 07:06 - 00:00 - - 07:42 07:42 00:00
Minimum _ 13,9 C 8,3 C 9,4 C 12,3 C 68 % 81 % 70 % 1006,8 hPa - 0,0 km/h (0 Bft) - - 7,5 C 8,3 C 0,0 km/h (0 Bft)
_ Max-Zeit 17:30 13:12 13:12 17:48 15:52 09:20 16:42 18:06 00:00 10:26 - - 13:40 13:12 12:34
Maximum _ 17,1 C 14,2 C 22,7 C 18,4 C 72 % 96 % 76 % 1009,4 hPa 0,0 l/m 1,1 km/h
O-NO (1 Bft)
- - 11,4 C 14,2 C 6,5 km/h
W-SW (2 Bft)
Durchschnitt _ 15,5 C 10,2 C 12,7 C 13,1 C 70 % 93 % 72 % 1008,0 hPa #0,0 l/m 0,1 km/h (0 Bft) NO - 9,1 C 10,2 C 0,4 km/h (0 Bft)